Time,TemperatureF,DewpointF,PressureIn,WindDirection,WindDirectionDegrees,WindSpeedMPH,WindSpeedGustMPH,Humidity,HourlyPrecipIn,Conditions,Clouds,dailyrainin,SoftwareType,DateUTC
2013-04-19 00:00:00,73.9,56.2,29.64,South,183,7.0,10.0,54,0.00,,---,0.00,VWS V14.01,2013-04-19 04:00:00,
2013-04-19 00:01:00,73.9,56.2,29.64,South,190,6.0,8.0,54,0.00,,---,0.00,VWS V14.01,2013-04-19 04:01:00,
2013-04-19 00:02:00,73.9,55.7,29.64,South,184,4.0,8.0,53,0.00,,---,0.00,VWS V14.01,2013-04-19 04:02:00,
2013-04-19 00:03:00,73.9,56.2,29.64,South,185,1.0,12.0,54,0.00,,---,0.00,VWS V14.01,2013-04-19 04:03:00,
2013-04-19 00:04:00,73.8,55.6,29.64,South,183,6.0,12.0,53,0.00,,---,0.00,VWS V14.01,2013-04-19 04:04:00,
2013-04-19 00:05:00,73.8,55.6,29.64,South,183,6.0,12.0,53,0.00,,---,0.00,VWS V14.01,2013-04-19 04:05:00,
2013-04-19 00:06:00,73.8,55.6,29.64,SSW,200,5.0,16.0,53,0.00,,---,0.00,VWS V14.01,2013-04-19 04:06:00,
2013-04-19 00:07:00,73.9,56.2,29.64,SSW,209,5.0,8.0,54,0.00,,---,0.00,VWS V14.01,2013-04-19 04:07:00,
2013-04-19 00:08:00,73.9,56.2,29.64,South,191,5.0,8.0,54,0.00,,---,0.00,VWS V14.01,2013-04-19 04:08:00,
2013-04-19 00:09:00,73.9,56.2,29.63,South,180,3.0,7.0,54,0.00,,---,0.00,VWS V14.01,2013-04-19 04:09:00,
2013-04-19 00:10:00,73.9,56.2,29.63,South,180,3.0,7.0,54,0.00,,---,0.00,VWS V14.01,2013-04-19 04:10:00,
2013-04-19 00:11:00,73.9,55.7,29.64,SSW,196,10.0,15.0,53,0.00,,---,0.00,VWS V14.01,2013-04-19 04:11:00,
2013-04-19 00:12:00,73.9,56.2,29.63,SSE,164,6.0,10.0,54,0.00,,---,0.00,VWS V14.01,2013-04-19 04:12:00,
2013-04-19 00:13:00,73.9,56.2,29.63,South,188,5.0,9.0,54,0.00,,---,0.00,VWS V14.01,2013-04-19 04:13:00,
2013-04-19 00:14:00,73.9,55.7,29.63,South,190,5.0,9.0,53,0.00,,---,0.00,VWS V14.01,2013-04-19 04:14:00,
2013-04-19 00:15:00,73.9,55.7,29.63,South,190,5.0,9.0,53,0.00,,---,0.00,VWS V14.01,2013-04-19 04:15:00,
2013-04-19 00:16:00,73.9,56.2,29.63,SSW,196,10.0,10.0,54,0.00,,---,0.00,VWS V14.01,2013-04-19 04:16:00,
2013-04-19 00:17:00,73.9,55.7,29.63,South,169,5.0,10.0,53,0.00,,---,0.00,VWS V14.01,2013-04-19 04:17:00,
2013-04-19 00:18:00,73.9,56.2,29.63,SW,235,5.0,10.0,54,0.00,,---,0.00,VWS V14.01,2013-04-19 04:18:00,
2013-04-19 00:19:00,73.9,56.2,29.63,SSW,199,6.0,10.0,54,0.00,,---,0.00,VWS V14.01,2013-04-19 04:19:00,
2013-04-19 00:20:00,73.9,56.2,29.63,SSW,199,6.0,10.0,54,0.00,,---,0.00,VWS V14.01,2013-04-19 04:20:00,
2013-04-19 00:21:00,73.9,56.2,29.63,South,190,4.0,7.0,54,0.00,,---,0.00,VWS V14.01,2013-04-19 04:21:00,
2013-04-19 00:22:00,73.9,56.2,29.63,South,183,5.0,6.0,54,0.00,,---,0.00,VWS V14.01,2013-04-19 04:22:00,
2013-04-19 00:23:00,73.9,56.2,29.63,SSW,201,6.0,6.0,54,0.00,,---,0.00,VWS V14.01,2013-04-19 04:23:00,
2013-04-19 00:24:00,73.8,56.1,29.63,South,186,4.0,10.0,54,0.00,,---,0.00,VWS V14.01,2013-04-19 04:24:00,
2013-04-19 00:25:00,73.8,56.1,29.63,South,186,4.0,10.0,54,0.00,,---,0.00,VWS V14.01,2013-04-19 04:25:00,
2013-04-19 00:26:00,73.7,56.0,29.63,SSW,211,3.0,8.0,54,0.00,,---,0.00,VWS V14.01,2013-04-19 04:26:00,
2013-04-19 00:27:00,73.7,56.0,29.63,SSW,200,7.0,10.0,54,0.00,,---,0.00,VWS V14.01,2013-04-19 04:27:00,
2013-04-19 00:28:00,73.8,56.1,29.63,South,178,7.0,10.0,54,0.00,,---,0.00,VWS V14.01,2013-04-19 04:28:00,
2013-04-19 00:29:00,73.8,56.6,29.63,South,186,8.0,8.0,55,0.00,,---,0.00,VWS V14.01,2013-04-19 04:29:00,
2013-04-19 00:30:00,73.8,56.6,29.63,South,186,8.0,8.0,55,0.00,,---,0.00,VWS V14.01,2013-04-19 04:30:00,
2013-04-19 00:31:00,73.8,56.1,29.63,SSW,197,6.0,11.0,54,0.00,,---,0.00,VWS V14.01,2013-04-19 04:31:00,
2013-04-19 00:32:00,73.8,56.1,29.63,South,174,5.0,8.0,54,0.00,,---,0.00,VWS V14.01,2013-04-19 04:32:00,
2013-04-19 00:33:00,73.8,56.6,29.63,South,182,6.0,9.0,55,0.00,,---,0.00,VWS V14.01,2013-04-19 04:33:00,
2013-04-19 00:34:00,73.7,56.0,29.63,South,183,7.0,9.0,54,0.00,,---,0.00,VWS V14.01,2013-04-19 04:34:00,
2013-04-19 00:35:00,73.7,56.0,29.63,South,183,7.0,9.0,54,0.00,,---,0.00,VWS V14.01,2013-04-19 04:35:00,
2013-04-19 00:36:00,73.7,56.0,29.62,South,189,3.0,8.0,54,0.00,,---,0.00,VWS V14.01,2013-04-19 04:36:00,
2013-04-19 00:37:00,73.8,56.1,29.62,SSE,165,5.0,11.0,54,0.00,,---,0.00,VWS V14.01,2013-04-19 04:37:00,
2013-04-19 00:38:00,73.8,56.6,29.62,SSW,211,4.0,11.0,55,0.00,,---,0.00,VWS V14.01,2013-04-19 04:38:00,
2013-04-19 00:39:00,73.8,56.1,29.62,SSW,198,7.0,12.0,54,0.00,,---,0.00,VWS V14.01,2013-04-19 04:39:00,
2013-04-19 00:40:00,73.8,56.1,29.62,SSW,198,7.0,12.0,54,0.00,,---,0.00,VWS V14.01,2013-04-19 04:40:00,
2013-04-19 00:41:00,73.8,56.6,29.62,South,178,4.0,9.0,55,0.00,,---,0.00,VWS V14.01,2013-04-19 04:41:00,
2013-04-19 00:42:00,73.8,56.6,29.62,SE,142,8.0,12.0,55,0.00,,---,0.00,VWS V14.01,2013-04-19 04:42:00,
2013-04-19 00:43:00,73.8,56.1,29.62,SSW,199,6.0,12.0,54,0.00,,---,0.00,VWS V14.01,2013-04-19 04:43:00,
2013-04-19 00:44:00,73.7,56.5,29.61,SSW,201,10.0,12.0,55,0.00,,---,0.00,VWS V14.01,2013-04-19 04:44:00,
2013-04-19 00:45:00,73.7,56.5,29.61,SSW,201,10.0,12.0,55,0.00,,---,0.00,VWS V14.01,2013-04-19 04:45:00,
2013-04-19 00:46:00,73.7,56.5,29.61,SSW,198,6.0,11.0,55,0.00,,---,0.00,VWS V14.01,2013-04-19 04:46:00,
2013-04-19 00:47:00,73.7,56.5,29.61,South,190,4.0,8.0,55,0.00,,---,0.00,VWS V14.01,2013-04-19 04:47:00,
2013-04-19 00:48:00,73.7,56.5,29.61,SSW,205,7.0,11.0,55,0.00,,---,0.00,VWS V14.01,2013-04-19 04:48:00,
2013-04-19 00:49:00,73.7,56.5,29.61,SSW,192,5.0,10.0,55,0.00,,---,0.00,VWS V14.01,2013-04-19 04:49:00,
2013-04-19 00:50:00,73.7,56.5,29.61,SSW,192,5.0,10.0,55,0.00,,---,0.00,VWS V14.01,2013-04-19 04:50:00,
2013-04-19 00:51:00,73.7,56.5,29.61,South,190,6.0,9.0,55,0.00,,---,0.00,VWS V14.01,2013-04-19 04:51:00,
2013-04-19 00:52:00,73.6,57.0,29.61,SSE,159,10.0,11.0,56,0.00,,---,0.00,VWS V14.01,2013-04-19 04:52:00,
2013-04-19 00:53:00,73.6,56.5,29.61,SSW,196,7.0,11.0,55,0.00,,---,0.00,VWS V14.01,2013-04-19 04:53:00,
2013-04-19 00:54:00,73.6,56.5,29.60,South,190,5.0,13.0,55,0.00,,---,0.00,VWS V14.01,2013-04-19 04:54:00,
2013-04-19 00:55:00,73.6,56.5,29.60,South,190,5.0,13.0,55,0.00,,---,0.00,VWS V14.01,2013-04-19 04:55:00,
2013-04-19 00:56:00,73.6,57.0,29.60,SW,232,6.0,9.0,56,0.00,,---,0.00,VWS V14.01,2013-04-19 04:56:00,
2013-04-19 00:57:00,73.5,56.4,29.60,South,183,7.0,9.0,55,0.00,,---,0.00,VWS V14.01,2013-04-19 04:57:00,
2013-04-19 00:58:00,73.5,56.4,29.60,South,189,5.0,14.0,55,0.00,,---,0.00,VWS V14.01,2013-04-19 04:58:00,
2013-04-19 00:59:00,73.5,56.9,29.60,South,189,8.0,10.0,56,0.00,,---,0.00,VWS V14.01,2013-04-19 04:59:00,
2013-04-19 01:00:00,73.5,56.9,29.60,South,189,8.0,10.0,56,0.00,,---,0.00,VWS V14.01,2013-04-19 05:00:00,
2013-04-19 01:01:00,73.5,56.4,29.60,SSW,200,8.0,11.0,55,0.00,,---,0.00,VWS V14.01,2013-04-19 05:01:00,
2013-04-19 01:02:00,73.5,56.9,29.59,South,186,5.0,8.0,56,0.00,,---,0.00,VWS V14.01,2013-04-19 05:02:00,
2013-04-19 01:03:00,73.5,56.9,29.60,South,178,5.0,18.0,56,0.00,,---,0.00,VWS V14.01,2013-04-19 05:03:00,
2013-04-19 01:04:00,73.4,56.8,29.59,South,183,4.0,8.0,56,0.00,,---,0.00,VWS V14.01,2013-04-19 05:04:00,
2013-04-19 01:05:00,73.4,56.8,29.59,South,183,4.0,8.0,56,0.00,,---,0.00,VWS V14.01,2013-04-19 05:05:00,
2013-04-19 01:06:00,73.4,56.8,29.59,South,176,9.0,12.0,56,0.00,,---,0.00,VWS V14.01,2013-04-19 05:06:00,
2013-04-19 01:07:00,73.4,56.8,29.59,South,186,5.0,13.0,56,0.00,,---,0.00,VWS V14.01,2013-04-19 05:07:00,
2013-04-19 01:08:00,73.4,56.8,29.59,SSE,168,5.0,8.0,56,0.00,,---,0.00,VWS V14.01,2013-04-19 05:08:00,
2013-04-19 01:09:00,73.3,56.7,29.59,SE,146,8.0,16.0,56,0.00,,---,0.00,VWS V14.01,2013-04-19 05:09:00,
2013-04-19 01:10:00,73.3,56.7,29.59,SE,146,8.0,16.0,56,0.00,,---,0.00,VWS V14.01,2013-04-19 05:10:00,
2013-04-19 01:11:00,73.3,56.7,29.59,South,188,8.0,9.0,56,0.00,,---,0.00,VWS V14.01,2013-04-19 05:11:00,
2013-04-19 01:12:00,73.3,56.7,29.59,SSE,159,14.0,14.0,56,0.00,,---,0.00,VWS V14.01,2013-04-19 05:12:00,
2013-04-19 01:13:00,73.3,56.7,29.59,South,186,7.0,14.0,56,0.00,,---,0.00,VWS V14.01,2013-04-19 05:13:00,
2013-04-19 01:14:00,73.3,56.7,29.59,SSW,211,8.0,13.0,56,0.00,,---,0.00,VWS V14.01,2013-04-19 05:14:00,
2013-04-19 01:15:00,73.3,56.7,29.59,SSW,211,8.0,13.0,56,0.00,,---,0.00,VWS V14.01,2013-04-19 05:15:00,
2013-04-19 01:16:00,73.4,56.8,29.59,SSW,192,10.0,10.0,56,0.00,,---,0.00,VWS V14.01,2013-04-19 05:16:00,
2013-04-19 01:17:00,73.4,56.8,29.59,South,170,11.0,13.0,56,0.00,,---,0.00,VWS V14.01,2013-04-19 05:17:00,
2013-04-19 01:18:00,73.4,57.3,29.58,South,178,9.0,11.0,57,0.00,,---,0.00,VWS V14.01,2013-04-19 05:18:00,
2013-04-19 01:19:00,73.4,57.3,29.58,SSW,196,6.0,8.0,57,0.00,,---,0.00,VWS V14.01,2013-04-19 05:19:00,
2013-04-19 01:20:00,73.4,57.3,29.58,SSW,196,6.0,8.0,57,0.00,,---,0.00,VWS V14.01,2013-04-19 05:20:00,
2013-04-19 01:21:00,73.4,57.3,29.59,SSW,192,4.0,6.0,57,0.00,,---,0.00,VWS V14.01,2013-04-19 05:21:00,
2013-04-19 01:22:00,73.3,57.2,29.59,South,188,9.0,10.0,57,0.00,,---,0.00,VWS V14.01,2013-04-19 05:22:00,
2013-04-19 01:23:00,73.3,57.2,29.58,SSE,150,11.0,13.0,57,0.00,,---,0.00,VWS V14.01,2013-04-19 05:23:00,
2013-04-19 01:24:00,73.3,57.2,29.58,SSW,194,7.0,8.0,57,0.00,,---,0.00,VWS V14.01,2013-04-19 05:24:00,
2013-04-19 01:25:00,73.3,57.2,29.58,SSW,194,7.0,8.0,57,0.00,,---,0.00,VWS V14.01,2013-04-19 05:25:00,
2013-04-19 01:26:00,73.2,57.1,29.58,ESE,114,9.0,9.0,57,0.00,,---,0.00,VWS V14.01,2013-04-19 05:26:00,
2013-04-19 01:27:00,73.2,57.1,29.58,SSE,165,10.0,13.0,57,0.00,,---,0.00,VWS V14.01,2013-04-19 05:27:00,
2013-04-19 01:28:00,73.2,57.1,29.58,South,185,4.0,11.0,57,0.00,,---,0.00,VWS V14.01,2013-04-19 05:28:00,
2013-04-19 01:29:00,73.2,57.1,29.58,South,184,3.0,9.0,57,0.00,,---,0.00,VWS V14.01,2013-04-19 05:29:00,
2013-04-19 01:30:00,73.2,57.1,29.58,South,184,3.0,9.0,57,0.00,,---,0.00,VWS V14.01,2013-04-19 05:30:00,
2013-04-19 01:31:00,73.1,57.0,29.58,SSW,194,7.0,8.0,57,0.00,,---,0.00,VWS V14.01,2013-04-19 05:31:00,
2013-04-19 01:32:00,73.1,57.0,29.58,SSW,199,7.0,12.0,57,0.00,,---,0.00,VWS V14.01,2013-04-19 05:32:00,
2013-04-19 01:33:00,73.1,57.5,29.58,SE,144,8.0,8.0,58,0.00,,---,0.00,VWS V14.01,2013-04-19 05:33:00,
2013-04-19 01:34:00,73.0,57.4,29.58,SSW,211,7.0,8.0,58,0.00,,---,0.00,VWS V14.01,2013-04-19 05:34:00,
2013-04-19 01:35:00,73.0,57.4,29.58,SSW,211,7.0,8.0,58,0.00,,---,0.00,VWS V14.01,2013-04-19 05:35:00,
2013-04-19 01:36:00,73.0,56.9,29.58,SSW,194,5.0,10.0,57,0.00,,---,0.00,VWS V14.01,2013-04-19 05:36:00,
2013-04-19 01:37:00,73.1,57.5,29.58,WSW,246,9.0,11.0,58,0.00,,---,0.00,VWS V14.01,2013-04-19 05:37:00,
2013-04-19 01:38:00,73.1,57.5,29.58,South,186,7.0,13.0,58,0.00,,---,0.00,VWS V14.01,2013-04-19 05:38:00,
2013-04-19 01:39:00,73.1,57.5,29.58,SSW,207,7.0,10.0,58,0.00,,---,0.00,VWS V14.01,2013-04-19 05:39:00,
2013-04-19 01:40:00,73.1,57.5,29.58,SSW,207,7.0,10.0,58,0.00,,---,0.00,VWS V14.01,2013-04-19 05:40:00,
2013-04-19 01:41:00,73.1,57.5,29.58,SSW,202,8.0,11.0,58,0.00,,---,0.00,VWS V14.01,2013-04-19 05:41:00,
2013-04-19 01:42:00,73.1,57.5,29.58,South,183,9.0,13.0,58,0.00,,---,0.00,VWS V14.01,2013-04-19 05:42:00,
2013-04-19 01:43:00,73.2,57.5,29.58,South,175,6.0,9.0,58,0.00,,---,0.00,VWS V14.01,2013-04-19 05:43:00,
2013-04-19 01:44:00,73.2,57.5,29.57,South,184,4.0,8.0,58,0.00,,---,0.00,VWS V14.01,2013-04-19 05:44:00,
2013-04-19 01:45:00,73.2,57.5,29.57,South,184,4.0,8.0,58,0.00,,---,0.00,VWS V14.01,2013-04-19 05:45:00,
2013-04-19 01:46:00,73.1,57.5,29.58,SSW,206,9.0,13.0,58,0.00,,---,0.00,VWS V14.01,2013-04-19 05:46:00,
2013-04-19 01:47:00,73.1,57.5,29.57,SSW,196,3.0,10.0,58,0.00,,---,0.00,VWS V14.01,2013-04-19 05:47:00,
2013-04-19 01:48:00,73.2,57.5,29.57,South,186,5.0,8.0,58,0.00,,---,0.00,VWS V14.01,2013-04-19 05:48:00,
2013-04-19 01:49:00,73.1,57.5,29.57,South,188,5.0,8.0,58,0.00,,---,0.00,VWS V14.01,2013-04-19 05:49:00,
2013-04-19 01:50:00,73.1,57.5,29.57,South,188,5.0,8.0,58,0.00,,---,0.00,VWS V14.01,2013-04-19 05:50:00,
2013-04-19 01:51:00,73.1,57.9,29.57,South,172,9.0,9.0,59,0.00,,---,0.00,VWS V14.01,2013-04-19 05:51:00,
2013-04-19 01:52:00,73.0,57.4,29.57,South,175,14.0,14.0,58,0.00,,---,0.00,VWS V14.01,2013-04-19 05:52:00,
2013-04-19 01:53:00,73.0,57.4,29.57,South,172,8.0,14.0,58,0.00,,---,0.00,VWS V14.01,2013-04-19 05:53:00,
2013-04-19 01:54:00,73.1,57.9,29.57,South,176,12.0,13.0,59,0.00,,---,0.00,VWS V14.01,2013-04-19 05:54:00,
2013-04-19 01:55:00,73.1,57.9,29.57,South,176,12.0,13.0,59,0.00,,---,0.00,VWS V14.01,2013-04-19 05:55:00,
2013-04-19 01:56:00,73.1,57.5,29.57,South,169,8.0,12.0,58,0.00,,---,0.00,VWS V14.01,2013-04-19 05:56:00,
2013-04-19 01:57:00,73.1,57.9,29.57,SSE,164,17.0,17.0,59,0.00,,---,0.00,VWS V14.01,2013-04-19 05:57:00,
2013-04-19 01:58:00,73.1,57.9,29.57,South,177,4.0,17.0,59,0.00,,---,0.00,VWS V14.01,2013-04-19 05:58:00,
2013-04-19 01:59:00,73.1,57.9,29.57,South,183,7.0,13.0,59,0.00,,---,0.00,VWS V14.01,2013-04-19 05:59:00,
2013-04-19 02:00:00,73.1,57.9,29.57,South,183,7.0,13.0,59,0.00,,---,0.00,VWS V14.01,2013-04-19 06:00:00,
2013-04-19 02:01:00,73.0,57.8,29.57,SSW,206,7.0,7.0,59,0.00,,---,0.00,VWS V14.01,2013-04-19 06:01:00,
2013-04-19 02:02:00,73.1,57.9,29.57,SSW,193,6.0,7.0,59,0.00,,---,0.00,VWS V14.01,2013-04-19 06:02:00,
2013-04-19 02:03:00,73.0,57.8,29.56,South,191,7.0,17.0,59,0.00,,---,0.00,VWS V14.01,2013-04-19 06:03:00,
2013-04-19 02:04:00,73.1,57.9,29.56,SSW,200,4.0,11.0,59,0.00,,---,0.00,VWS V14.01,2013-04-19 06:04:00,
2013-04-19 02:05:00,73.1,57.9,29.56,SSW,200,4.0,11.0,59,0.00,,---,0.00,VWS V14.01,2013-04-19 06:05:00,
2013-04-19 02:06:00,73.1,58.4,29.56,South,180,4.0,8.0,60,0.00,,---,0.00,VWS V14.01,2013-04-19 06:06:00,
2013-04-19 02:07:00,73.0,58.3,29.56,SSW,198,6.0,10.0,60,0.00,,---,0.00,VWS V14.01,2013-04-19 06:07:00,
2013-04-19 02:08:00,72.9,58.2,29.56,SSW,204,7.0,8.0,60,0.00,,---,0.00,VWS V14.01,2013-04-19 06:08:00,
2013-04-19 02:09:00,72.9,58.2,29.57,SSE,157,7.0,13.0,60,0.00,,---,0.00,VWS V14.01,2013-04-19 06:09:00,
2013-04-19 02:10:00,72.9,58.2,29.57,SSE,157,7.0,13.0,60,0.00,,---,0.00,VWS V14.01,2013-04-19 06:10:00,
2013-04-19 02:11:00,72.8,58.6,29.56,South,170,9.0,9.0,61,0.00,,---,0.00,VWS V14.01,2013-04-19 06:11:00,
2013-04-19 02:12:00,72.7,58.5,29.56,South,187,4.0,12.0,61,0.00,,---,0.00,VWS V14.01,2013-04-19 06:12:00,
2013-04-19 02:13:00,72.6,58.4,29.56,South,186,6.0,8.0,61,0.00,,---,0.00,VWS V14.01,2013-04-19 06:13:00,
2013-04-19 02:14:00,72.5,58.3,29.56,SSW,192,5.0,9.0,61,0.00,,---,0.00,VWS V14.01,2013-04-19 06:14:00,
2013-04-19 02:15:00,72.5,58.3,29.56,SSW,192,5.0,9.0,61,0.00,,---,0.00,VWS V14.01,2013-04-19 06:15:00,
2013-04-19 02:16:00,72.5,58.8,29.56,SW,217,7.0,10.0,62,0.00,,---,0.00,VWS V14.01,2013-04-19 06:16:00,
2013-04-19 02:17:00,72.4,58.2,29.56,SSE,159,4.0,8.0,61,0.00,,---,0.00,VWS V14.01,2013-04-19 06:17:00,
2013-04-19 02:18:00,72.4,58.7,29.56,SSW,197,5.0,9.0,62,0.00,,---,0.00,VWS V14.01,2013-04-19 06:18:00,
2013-04-19 02:19:00,72.3,58.6,29.56,South,182,8.0,9.0,62,0.00,,---,0.00,VWS V14.01,2013-04-19 06:19:00,
2013-04-19 02:20:00,72.3,58.6,29.56,South,182,8.0,9.0,62,0.00,,---,0.00,VWS V14.01,2013-04-19 06:20:00,
2013-04-19 02:21:00,72.3,58.6,29.56,SSW,200,7.0,10.0,62,0.00,,---,0.00,VWS V14.01,2013-04-19 06:21:00,
2013-04-19 02:22:00,72.3,58.1,29.56,South,186,6.0,11.0,61,0.00,,---,0.00,VWS V14.01,2013-04-19 06:22:00,
2013-04-19 02:23:00,72.3,58.1,29.56,South,188,4.0,9.0,61,0.00,,---,0.00,VWS V14.01,2013-04-19 06:23:00,
2013-04-19 02:24:00,72.3,58.6,29.56,South,171,7.0,7.0,62,0.00,,---,0.00,VWS V14.01,2013-04-19 06:24:00,
2013-04-19 02:25:00,72.3,58.6,29.56,South,171,7.0,7.0,62,0.00,,---,0.00,VWS V14.01,2013-04-19 06:25:00,
2013-04-19 02:26:00,72.3,58.6,29.56,South,175,5.0,9.0,62,0.00,,---,0.00,VWS V14.01,2013-04-19 06:26:00,
2013-04-19 02:27:00,72.3,58.6,29.56,South,182,2.0,9.0,62,0.00,,---,0.00,VWS V14.01,2013-04-19 06:27:00,
2013-04-19 02:28:00,72.3,58.6,29.56,SW,215,5.0,14.0,62,0.00,,---,0.00,VWS V14.01,2013-04-19 06:28:00,
2013-04-19 02:29:00,72.3,58.1,29.55,South,184,5.0,11.0,61,0.00,,---,0.00,VWS V14.01,2013-04-19 06:29:00,
2013-04-19 02:30:00,72.3,58.1,29.55,South,184,5.0,11.0,61,0.00,,---,0.00,VWS V14.01,2013-04-19 06:30:00,
2013-04-19 02:31:00,72.4,58.7,29.55,South,176,4.0,8.0,62,0.00,,---,0.00,VWS V14.01,2013-04-19 06:31:00,
2013-04-19 02:32:00,72.4,58.7,29.55,South,176,5.0,6.0,62,0.00,,---,0.00,VWS V14.01,2013-04-19 06:32:00,
2013-04-19 02:33:00,72.3,58.6,29.55,WSW,248,4.0,8.0,62,0.00,,---,0.00,VWS V14.01,2013-04-19 06:33:00,
2013-04-19 02:34:00,72.3,58.6,29.55,South,175,7.0,7.0,62,0.00,,---,0.00,VWS V14.01,2013-04-19 06:34:00,
2013-04-19 02:35:00,72.3,58.6,29.55,South,175,7.0,7.0,62,0.00,,---,0.00,VWS V14.01,2013-04-19 06:35:00,
2013-04-19 02:36:00,72.2,58.9,29.55,South,182,5.0,7.0,63,0.00,,---,0.00,VWS V14.01,2013-04-19 06:36:00,
2013-04-19 02:37:00,72.2,58.5,29.55,SSW,200,7.0,9.0,62,0.00,,---,0.00,VWS V14.01,2013-04-19 06:37:00,
2013-04-19 02:38:00,72.1,58.4,29.55,SSW,213,7.0,10.0,62,0.00,,---,0.00,VWS V14.01,2013-04-19 06:38:00,
2013-04-19 02:39:00,72.1,58.8,29.55,South,177,5.0,7.0,63,0.00,,---,0.00,VWS V14.01,2013-04-19 06:39:00,
2013-04-19 02:40:00,72.1,58.8,29.55,South,177,5.0,7.0,63,0.00,,---,0.00,VWS V14.01,2013-04-19 06:40:00,
2013-04-19 02:41:00,72.1,59.3,29.55,South,169,6.0,6.0,64,0.00,,---,0.00,VWS V14.01,2013-04-19 06:41:00,
2013-04-19 02:42:00,72.0,59.2,29.54,SSW,200,6.0,6.0,64,0.00,,---,0.00,VWS V14.01,2013-04-19 06:42:00,
2013-04-19 02:43:00,71.9,59.1,29.54,South,186,2.0,9.0,64,0.00,,---,0.00,VWS V14.01,2013-04-19 06:43:00,
2013-04-19 02:44:00,71.8,59.0,29.54,SSE,155,5.0,9.0,64,0.00,,---,0.00,VWS V14.01,2013-04-19 06:44:00,
2013-04-19 02:45:00,71.8,59.0,29.54,SSE,155,5.0,9.0,64,0.00,,---,0.00,VWS V14.01,2013-04-19 06:45:00,
2013-04-19 02:46:00,71.8,59.0,29.54,South,180,7.0,9.0,64,0.00,,---,0.00,VWS V14.01,2013-04-19 06:46:00,
2013-04-19 02:47:00,71.7,59.3,29.55,SSW,192,3.0,8.0,65,0.00,,---,0.00,VWS V14.01,2013-04-19 06:47:00,
2013-04-19 02:48:00,71.6,59.2,29.54,SSW,197,8.0,10.0,65,0.00,,---,0.00,VWS V14.01,2013-04-19 06:48:00,
2013-04-19 02:49:00,71.6,59.2,29.55,South,184,4.0,7.0,65,0.00,,---,0.00,VWS V14.01,2013-04-19 06:49:00,
2013-04-19 02:50:00,71.6,59.2,29.55,South,184,4.0,7.0,65,0.00,,---,0.00,VWS V14.01,2013-04-19 06:50:00,
2013-04-19 02:51:00,71.5,59.6,29.55,South,185,5.0,11.0,66,0.00,,---,0.00,VWS V14.01,2013-04-19 06:51:00,
2013-04-19 02:52:00,71.4,59.5,29.54,SSW,194,8.0,11.0,66,0.00,,---,0.00,VWS V14.01,2013-04-19 06:52:00,
2013-04-19 02:53:00,71.3,59.4,29.55,SSE,157,5.0,9.0,66,0.00,,---,0.00,VWS V14.01,2013-04-19 06:53:00,
2013-04-19 02:54:00,71.1,60.0,29.55,SSE,153,6.0,10.0,68,0.00,,---,0.00,VWS V14.01,2013-04-19 06:54:00,
2013-04-19 02:55:00,71.1,60.0,29.55,SSE,153,6.0,10.0,68,0.00,,---,0.00,VWS V14.01,2013-04-19 06:55:00,
2013-04-19 02:56:00,70.9,59.8,29.54,South,191,8.0,12.0,68,0.00,,---,0.00,VWS V14.01,2013-04-19 06:56:00,
2013-04-19 02:57:00,70.7,60.0,29.55,South,185,7.0,7.0,69,0.00,,---,0.00,VWS V14.01,2013-04-19 06:57:00,
2013-04-19 02:58:00,70.5,59.8,29.54,South,189,4.0,7.0,69,0.00,,---,0.00,VWS V14.01,2013-04-19 06:58:00,
2013-04-19 02:59:00,70.2,60.0,29.54,SSW,192,7.0,15.0,70,0.00,,---,0.00,VWS V14.01,2013-04-19 06:59:00,
2013-04-19 03:00:00,70.2,60.0,29.54,SSW,192,7.0,15.0,70,0.00,,---,0.00,VWS V14.01,2013-04-19 07:00:00,
2013-04-19 03:01:00,70.1,59.9,29.54,South,189,6.0,8.0,70,0.00,,---,0.00,VWS V14.01,2013-04-19 07:01:00,
2013-04-19 03:02:00,70.1,60.3,29.54,SSE,149,8.0,8.0,71,0.00,,---,0.00,VWS V14.01,2013-04-19 07:02:00,
2013-04-19 03:03:00,69.9,60.1,29.54,South,181,5.0,12.0,71,0.00,,---,0.00,VWS V14.01,2013-04-19 07:03:00,
2013-04-19 03:04:00,69.7,60.3,29.54,SSE,163,6.0,12.0,72,0.00,,---,0.00,VWS V14.01,2013-04-19 07:04:00,
2013-04-19 03:05:00,69.7,60.3,29.54,SSE,163,6.0,12.0,72,0.00,,---,0.00,VWS V14.01,2013-04-19 07:05:00,
2013-04-19 03:06:00,69.6,60.2,29.54,SSW,196,9.0,11.0,72,0.00,,---,0.00,VWS V14.01,2013-04-19 07:06:00,
2013-04-19 03:07:00,69.5,60.5,29.54,SSW,203,4.0,9.0,73,0.00,,---,0.00,VWS V14.01,2013-04-19 07:07:00,
2013-04-19 03:08:00,69.3,60.7,29.54,South,191,8.0,8.0,74,0.00,,---,0.00,VWS V14.01,2013-04-19 07:08:00,
2013-04-19 03:09:00,69.1,60.5,29.54,South,169,9.0,10.0,74,0.00,,---,0.00,VWS V14.01,2013-04-19 07:09:00,
2013-04-19 03:10:00,69.1,60.5,29.54,South,169,9.0,10.0,74,0.00,,---,0.00,VWS V14.01,2013-04-19 07:10:00,
2013-04-19 03:11:00,69.0,60.4,29.54,South,178,6.0,9.0,74,0.00,,---,0.00,VWS V14.01,2013-04-19 07:11:00,
2013-04-19 03:12:00,68.8,60.6,29.54,SSW,194,7.0,10.0,75,0.00,,---,0.00,VWS V14.01,2013-04-19 07:12:00,
2013-04-19 03:13:00,68.7,60.8,29.55,South,182,1.0,8.0,76,0.00,,---,0.00,VWS V14.01,2013-04-19 07:13:00,
2013-04-19 03:14:00,68.5,60.6,29.54,South,186,5.0,8.0,76,0.00,,---,0.00,VWS V14.01,2013-04-19 07:14:00,
2013-04-19 03:15:00,68.5,60.7,29.54,South,186,5.0,8.0,76,0.00,,---,0.00,VWS V14.01,2013-04-19 07:15:00,
2013-04-19 03:16:00,68.3,60.5,29.54,South,185,3.0,7.0,76,0.00,,---,0.00,VWS V14.01,2013-04-19 07:16:00,
2013-04-19 03:17:00,68.2,60.7,29.54,South,188,6.0,7.0,77,0.00,,---,0.00,VWS V14.01,2013-04-19 07:17:00,
2013-04-19 03:18:00,68.1,60.6,29.54,SSW,209,4.0,8.0,77,0.00,,---,0.00,VWS V14.01,2013-04-19 07:18:00,
2013-04-19 03:19:00,68.0,60.5,29.54,SSW,199,5.0,9.0,77,0.00,,---,0.00,VWS V14.01,2013-04-19 07:19:00,
2013-04-19 03:20:00,68.0,60.5,29.54,SSW,199,5.0,9.0,77,0.00,,---,0.00,VWS V14.01,2013-04-19 07:20:00,
2013-04-19 03:21:00,68.0,60.5,29.54,South,178,4.0,5.0,77,0.00,,---,0.00,VWS V14.01,2013-04-19 07:21:00,
2013-04-19 03:22:00,67.9,60.8,29.54,South,188,2.0,5.0,78,0.00,,---,0.00,VWS V14.01,2013-04-19 07:22:00,
2013-04-19 03:23:00,67.9,60.8,29.54,SW,235,3.0,8.0,78,0.00,,---,0.00,VWS V14.01,2013-04-19 07:23:00,
2013-04-19 03:24:00,67.7,61.0,29.54,SSW,193,8.0,9.0,79,0.01,,---,0.01,VWS V14.01,2013-04-19 07:24:00,
2013-04-19 03:25:00,67.7,61.0,29.54,SSW,193,8.0,9.0,79,0.01,,---,0.01,VWS V14.01,2013-04-19 07:25:00,
2013-04-19 03:26:00,67.6,60.5,29.53,SSE,166,4.0,8.0,78,0.01,,---,0.01,VWS V14.01,2013-04-19 07:26:00,
2013-04-19 03:27:00,67.6,60.9,29.53,South,177,5.0,6.0,79,0.01,,---,0.01,VWS V14.01,2013-04-19 07:27:00,
2013-04-19 03:28:00,67.5,60.8,29.53,SSW,199,9.0,9.0,79,0.01,,---,0.01,VWS V14.01,2013-04-19 07:28:00,
2013-04-19 03:29:00,67.4,61.0,29.53,SSW,211,5.0,9.0,80,0.01,,---,0.01,VWS V14.01,2013-04-19 07:29:00,
2013-04-19 03:30:00,67.4,61.0,29.53,SSW,211,5.0,9.0,80,0.01,,---,0.01,VWS V14.01,2013-04-19 07:30:00,
2013-04-19 03:31:00,67.3,60.9,29.53,South,186,6.0,6.0,80,0.01,,---,0.01,VWS V14.01,2013-04-19 07:31:00,
2013-04-19 03:32:00,67.3,60.9,29.53,SSW,197,4.0,6.0,80,0.01,,---,0.01,VWS V14.01,2013-04-19 07:32:00,
2013-04-19 03:33:00,67.2,60.8,29.53,SSE,160,5.0,6.0,80,0.01,,---,0.01,VWS V14.01,2013-04-19 07:33:00,
2013-04-19 03:34:00,67.0,61.0,29.53,SSW,198,5.0,7.0,81,0.01,,---,0.01,VWS V14.01,2013-04-19 07:34:00,
2013-04-19 03:35:00,67.0,61.0,29.53,SSW,198,5.0,7.0,81,0.01,,---,0.01,VWS V14.01,2013-04-19 07:35:00,
2013-04-19 03:36:00,66.9,60.9,29.52,South,175,4.0,5.0,81,0.01,,---,0.01,VWS V14.01,2013-04-19 07:36:00,
2013-04-19 03:37:00,66.8,61.1,29.52,SSE,162,5.0,7.0,82,0.02,,---,0.02,VWS V14.01,2013-04-19 07:37:00,
2013-04-19 03:38:00,66.7,61.0,29.52,South,185,4.0,5.0,82,0.02,,---,0.02,VWS V14.01,2013-04-19 07:38:00,
2013-04-19 03:39:00,66.5,61.2,29.52,South,182,4.0,6.0,83,0.02,,---,0.02,VWS V14.01,2013-04-19 07:39:00,
2013-04-19 03:40:00,66.5,61.2,29.52,South,182,4.0,6.0,83,0.02,,---,0.02,VWS V14.01,2013-04-19 07:40:00,
2013-04-19 03:41:00,66.3,61.0,29.52,South,171,2.0,5.0,83,0.02,,---,0.02,VWS V14.01,2013-04-19 07:41:00,
2013-04-19 03:42:00,66.2,61.2,29.52,South,171,7.0,9.0,84,0.03,,---,0.03,VWS V14.01,2013-04-19 07:42:00,
2013-04-19 03:43:00,66.1,61.1,29.52,SSW,197,4.0,8.0,84,0.03,,---,0.03,VWS V14.01,2013-04-19 07:43:00,
2013-04-19 03:44:00,65.9,61.3,29.52,South,178,5.0,7.0,85,0.03,,---,0.03,VWS V14.01,2013-04-19 07:44:00,
2013-04-19 03:45:00,65.9,61.3,29.52,South,178,5.0,7.0,85,0.03,,---,0.03,VWS V14.01,2013-04-19 07:45:00,
2013-04-19 03:46:00,65.8,61.2,29.52,South,174,6.0,9.0,85,0.03,,---,0.03,VWS V14.01,2013-04-19 07:46:00,
2013-04-19 03:47:00,65.7,61.1,29.52,South,174,2.0,6.0,85,0.03,,---,0.03,VWS V14.01,2013-04-19 07:47:00,
2013-04-19 03:48:00,65.6,61.3,29.52,SSW,200,8.0,8.0,86,0.03,,---,0.03,VWS V14.01,2013-04-19 07:48:00,
2013-04-19 03:49:00,65.5,61.2,29.52,South,171,6.0,9.0,86,0.04,,---,0.04,VWS V14.01,2013-04-19 07:49:00,
2013-04-19 03:50:00,65.5,61.2,29.52,South,171,6.0,9.0,86,0.04,,---,0.04,VWS V14.01,2013-04-19 07:50:00,
2013-04-19 03:51:00,65.4,61.1,29.51,South,175,2.0,8.0,86,0.04,,---,0.04,VWS V14.01,2013-04-19 07:51:00,
2013-04-19 03:52:00,65.4,61.1,29.51,SSW,192,3.0,6.0,86,0.04,,---,0.04,VWS V14.01,2013-04-19 07:52:00,
2013-04-19 03:53:00,65.3,61.0,29.51,South,178,6.0,6.0,86,0.04,,---,0.04,VWS V14.01,2013-04-19 07:53:00,
2013-04-19 03:54:00,65.2,61.2,29.51,SSW,202,6.0,8.0,87,0.04,,---,0.04,VWS V14.01,2013-04-19 07:54:00,
2013-04-19 03:55:00,65.2,61.2,29.51,SSW,202,6.0,8.0,87,0.04,,---,0.04,VWS V14.01,2013-04-19 07:55:00,
2013-04-19 03:56:00,65.1,61.1,29.51,South,184,5.0,10.0,87,0.04,,---,0.04,VWS V14.01,2013-04-19 07:56:00,
2013-04-19 03:57:00,65.1,61.1,29.51,South,189,6.0,7.0,87,0.04,,---,0.04,VWS V14.01,2013-04-19 07:57:00,
2013-04-19 03:58:00,65.1,61.1,29.50,SSE,165,5.0,7.0,87,0.04,,---,0.04,VWS V14.01,2013-04-19 07:58:00,
2013-04-19 03:59:00,65.0,61.4,29.50,SSW,193,9.0,12.0,88,0.04,,---,0.04,VWS V14.01,2013-04-19 07:59:00,
2013-04-19 04:00:00,65.0,61.4,29.50,SSW,193,9.0,12.0,88,0.04,,---,0.04,VWS V14.01,2013-04-19 08:00:00,
2013-04-19 04:01:00,64.9,61.3,29.50,South,186,4.0,9.0,88,0.05,,---,0.05,VWS V14.01,2013-04-19 08:01:00,
2013-04-19 04:02:00,64.9,61.3,29.50,South,169,4.0,9.0,88,0.05,,---,0.05,VWS V14.01,2013-04-19 08:02:00,
2013-04-19 04:03:00,64.9,61.3,29.50,South,169,7.0,10.0,88,0.05,,---,0.05,VWS V14.01,2013-04-19 08:03:00,
2013-04-19 04:04:00,64.8,61.2,29.49,SW,219,7.0,9.0,88,0.05,,---,0.05,VWS V14.01,2013-04-19 08:04:00,
2013-04-19 04:05:00,64.8,61.2,29.49,SW,219,7.0,9.0,88,0.05,,---,0.05,VWS V14.01,2013-04-19 08:05:00,
2013-04-19 04:06:00,64.8,61.2,29.49,SSE,153,6.0,8.0,88,0.05,,---,0.05,VWS V14.01,2013-04-19 08:06:00,
2013-04-19 04:07:00,64.8,61.2,29.49,South,185,6.0,10.0,88,0.05,,---,0.05,VWS V14.01,2013-04-19 08:07:00,
2013-04-19 04:08:00,64.8,61.2,29.50,SSE,165,4.0,6.0,88,0.05,,---,0.05,VWS V14.01,2013-04-19 08:08:00,
2013-04-19 04:09:00,64.7,61.1,29.49,South,189,8.0,10.0,88,0.05,,---,0.05,VWS V14.01,2013-04-19 08:09:00,
2013-04-19 04:10:00,64.7,61.1,29.49,South,189,8.0,10.0,88,0.05,,---,0.05,VWS V14.01,2013-04-19 08:10:00,
2013-04-19 04:11:00,64.8,61.2,29.49,South,176,5.0,14.0,88,0.05,,---,0.05,VWS V14.01,2013-04-19 08:11:00,
2013-04-19 04:12:00,64.8,61.2,29.49,South,181,5.0,13.0,88,0.05,,---,0.05,VWS V14.01,2013-04-19 08:12:00,
2013-04-19 04:13:00,64.8,61.2,29.49,South,186,6.0,11.0,88,0.05,,---,0.05,VWS V14.01,2013-04-19 08:13:00,
2013-04-19 04:14:00,64.9,61.3,29.49,South,186,4.0,12.0,88,0.05,,---,0.05,VWS V14.01,2013-04-19 08:14:00,
2013-04-19 04:15:00,64.9,61.3,29.49,South,186,4.0,12.0,88,0.05,,---,0.05,VWS V14.01,2013-04-19 08:15:00,
2013-04-19 04:16:00,64.9,61.3,29.49,SSE,148,8.0,12.0,88,0.06,,---,0.06,VWS V14.01,2013-04-19 08:16:00,
2013-04-19 04:17:00,64.9,61.6,29.49,SSW,196,8.0,10.0,89,0.06,,---,0.06,VWS V14.01,2013-04-19 08:17:00,
2013-04-19 04:18:00,64.8,61.5,29.49,SSE,168,6.0,12.0,89,0.06,,---,0.06,VWS V14.01,2013-04-19 08:18:00,
2013-04-19 04:19:00,64.7,61.4,29.49,SSW,196,5.0,9.0,89,0.06,,---,0.06,VWS V14.01,2013-04-19 08:19:00,
2013-04-19 04:20:00,64.7,61.4,29.49,SSW,196,5.0,9.0,89,0.06,,---,0.06,VWS V14.01,2013-04-19 08:20:00,
2013-04-19 04:21:00,64.7,61.4,29.49,South,188,9.0,11.0,89,0.06,,---,0.06,VWS V14.01,2013-04-19 08:21:00,
2013-04-19 04:22:00,64.7,61.4,29.48,SSE,161,7.0,12.0,89,0.06,,---,0.06,VWS V14.01,2013-04-19 08:22:00,
2013-04-19 04:23:00,64.7,61.7,29.49,South,175,4.0,7.0,90,0.06,,---,0.06,VWS V14.01,2013-04-19 08:23:00,
2013-04-19 04:24:00,64.6,61.6,29.48,SSW,194,5.0,7.0,90,0.06,,---,0.06,VWS V14.01,2013-04-19 08:24:00,
2013-04-19 04:25:00,64.6,61.6,29.48,SSW,194,5.0,7.0,90,0.06,,---,0.06,VWS V14.01,2013-04-19 08:25:00,
2013-04-19 04:26:00,64.5,61.5,29.48,South,180,4.0,9.0,90,0.05,,---,0.06,VWS V14.01,2013-04-19 08:26:00,
2013-04-19 04:27:00,64.5,61.5,29.48,SSW,199,8.0,9.0,90,0.05,,---,0.06,VWS V14.01,2013-04-19 08:27:00,
2013-04-19 04:28:00,64.5,61.5,29.48,South,188,6.0,8.0,90,0.05,,---,0.06,VWS V14.01,2013-04-19 08:28:00,
2013-04-19 04:29:00,64.5,61.5,29.48,South,189,5.0,8.0,90,0.05,,---,0.06,VWS V14.01,2013-04-19 08:29:00,
2013-04-19 04:30:00,64.5,61.5,29.48,South,189,5.0,8.0,90,0.05,,---,0.06,VWS V14.01,2013-04-19 08:30:00,
2013-04-19 04:31:00,64.5,61.5,29.48,SSE,147,6.0,7.0,90,0.06,,---,0.07,VWS V14.01,2013-04-19 08:31:00,
2013-04-19 04:32:00,64.5,61.5,29.48,SE,140,4.0,6.0,90,0.06,,---,0.07,VWS V14.01,2013-04-19 08:32:00,
2013-04-19 04:33:00,64.5,61.5,29.47,South,187,4.0,7.0,90,0.06,,---,0.07,VWS V14.01,2013-04-19 08:33:00,
2013-04-19 04:34:00,64.4,61.7,29.47,South,173,7.0,9.0,91,0.06,,---,0.07,VWS V14.01,2013-04-19 08:34:00,
2013-04-19 04:35:00,64.4,61.7,29.47,South,173,7.0,9.0,91,0.06,,---,0.07,VWS V14.01,2013-04-19 08:35:00,
2013-04-19 04:36:00,64.3,61.6,29.47,SSE,149,2.0,7.0,91,0.06,,---,0.07,VWS V14.01,2013-04-19 08:36:00,
2013-04-19 04:37:00,64.3,61.6,29.47,SW,227,3.0,9.0,91,0.06,,---,0.07,VWS V14.01,2013-04-19 08:37:00,
2013-04-19 04:38:00,64.3,61.6,29.47,South,186,5.0,7.0,91,0.06,,---,0.08,VWS V14.01,2013-04-19 08:38:00,
2013-04-19 04:39:00,64.3,61.6,29.48,SSW,202,4.0,6.0,91,0.07,,---,0.09,VWS V14.01,2013-04-19 08:39:00,
2013-04-19 04:40:00,64.3,61.6,29.48,SSW,202,4.0,6.0,91,0.07,,---,0.09,VWS V14.01,2013-04-19 08:40:00,
2013-04-19 04:41:00,64.3,61.6,29.49,West,273,6.0,8.0,91,0.08,,---,0.10,VWS V14.01,2013-04-19 08:41:00,
2013-04-19 04:42:00,64.2,61.5,29.51,West,262,11.0,12.0,91,0.08,,---,0.10,VWS V14.01,2013-04-19 08:42:00,
2013-04-19 04:43:00,64.1,61.4,29.52,NW,304,6.0,14.0,91,0.08,,---,0.11,VWS V14.01,2013-04-19 08:43:00,
2013-04-19 04:44:00,63.2,59.6,29.53,NW,311,3.0,8.0,88,0.17,,---,0.20,VWS V14.01,2013-04-19 08:44:00,
2013-04-19 04:45:00,63.2,59.6,29.53,NW,311,3.0,8.0,88,0.17,,---,0.20,VWS V14.01,2013-04-19 08:45:00,
2013-04-19 04:46:00,62.7,58.8,29.53,NNE,27,3.0,5.0,87,0.28,,---,0.31,VWS V14.01,2013-04-19 08:46:00,
2013-04-19 04:47:00,62.2,58.3,29.51,WNW,300,1.0,3.0,87,0.30,,---,0.33,VWS V14.01,2013-04-19 08:47:00,
2013-04-19 04:48:00,61.6,57.7,29.52,WNW,284,2.0,3.0,87,0.32,,---,0.35,VWS V14.01,2013-04-19 08:48:00,
2013-04-19 04:49:00,60.8,57.2,29.53,WNW,301,3.0,5.0,88,0.32,,---,0.36,VWS V14.01,2013-04-19 08:49:00,
2013-04-19 04:50:00,60.8,57.2,29.53,WNW,301,3.0,5.0,88,0.32,,---,0.36,VWS V14.01,2013-04-19 08:50:00,
2013-04-19 04:51:00,60.4,56.8,29.52,WNW,302,0.0,3.0,88,0.32,,---,0.36,VWS V14.01,2013-04-19 08:51:00,
2013-04-19 04:52:00,60.1,56.8,29.53,NW,325,0.0,7.0,89,0.33,,---,0.37,VWS V14.01,2013-04-19 08:52:00,
2013-04-19 04:53:00,59.8,56.6,29.53,NW,325,0.0,0.0,89,0.33,,---,0.37,VWS V14.01,2013-04-19 08:53:00,
2013-04-19 04:54:00,59.3,56.4,29.53,West,279,3.0,4.0,90,0.35,,---,0.39,VWS V14.01,2013-04-19 08:54:00,
2013-04-19 04:55:00,59.3,56.4,29.53,West,279,3.0,4.0,90,0.35,,---,0.39,VWS V14.01,2013-04-19 08:55:00,
2013-04-19 04:56:00,59.0,56.1,29.53,WNW,288,0.0,3.0,90,0.35,,---,0.39,VWS V14.01,2013-04-19 08:56:00,
2013-04-19 04:57:00,58.7,55.8,29.53,WNW,300,0.0,5.0,90,0.35,,---,0.39,VWS V14.01,2013-04-19 08:57:00,
2013-04-19 04:58:00,58.4,55.5,29.53,WNW,300,0.0,1.0,90,0.35,,---,0.39,VWS V14.01,2013-04-19 08:58:00,
2013-04-19 04:59:00,57.8,54.9,29.53,NW,304,1.0,4.0,90,0.36,,---,0.40,VWS V14.01,2013-04-19 08:59:00,
2013-04-19 05:00:00,57.8,54.9,29.53,NW,304,1.0,4.0,90,0.36,,---,0.40,VWS V14.01,2013-04-19 09:00:00,
2013-04-19 05:01:00,57.6,54.7,29.53,NW,304,1.0,3.0,90,0.37,,---,0.41,VWS V14.01,2013-04-19 09:01:00,
2013-04-19 05:02:00,57.3,54.4,29.53,NW,304,0.0,3.0,90,0.36,,---,0.41,VWS V14.01,2013-04-19 09:02:00,
2013-04-19 05:03:00,57.1,54.5,29.52,NW,304,0.0,1.0,91,0.37,,---,0.42,VWS V14.01,2013-04-19 09:03:00,
2013-04-19 05:04:00,56.8,54.2,29.53,NW,304,0.0,1.0,91,0.38,,---,0.43,VWS V14.01,2013-04-19 09:04:00,
2013-04-19 05:05:00,56.8,54.2,29.53,NW,304,0.0,1.0,91,0.38,,---,0.43,VWS V14.01,2013-04-19 09:05:00,
2013-04-19 05:06:00,56.7,54.1,29.53,NW,304,0.0,0.0,91,0.39,,---,0.44,VWS V14.01,2013-04-19 09:06:00,
2013-04-19 05:07:00,56.5,53.9,29.53,NW,304,0.0,0.0,91,0.40,,---,0.45,VWS V14.01,2013-04-19 09:07:00,
2013-04-19 05:08:00,56.4,54.1,29.53,NW,304,0.0,0.0,92,0.40,,---,0.45,VWS V14.01,2013-04-19 09:08:00,
2013-04-19 05:09:00,56.1,53.8,29.53,North,360,0.0,2.0,92,0.41,,---,0.46,VWS V14.01,2013-04-19 09:09:00,
2013-04-19 05:10:00,56.1,53.8,29.53,North,360,0.0,2.0,92,0.41,,---,0.46,VWS V14.01,2013-04-19 09:10:00,
2013-04-19 05:11:00,56.0,53.7,29.53,NW,311,2.0,3.0,92,0.42,,---,0.47,VWS V14.01,2013-04-19 09:11:00,
2013-04-19 05:12:00,55.8,53.5,29.53,NW,311,0.0,2.0,92,0.42,,---,0.47,VWS V14.01,2013-04-19 09:12:00,
2013-04-19 05:13:00,55.6,53.3,29.53,NW,311,1.0,2.0,92,0.43,,---,0.48,VWS V14.01,2013-04-19 09:13:00,
2013-04-19 05:14:00,55.2,52.9,29.53,West,273,0.0,2.0,92,0.44,,---,0.49,VWS V14.01,2013-04-19 09:14:00,
2013-04-19 05:15:00,55.2,52.9,29.53,West,273,0.0,2.0,92,0.44,,---,0.49,VWS V14.01,2013-04-19 09:15:00,
2013-04-19 05:16:00,55.0,52.7,29.53,NW,305,0.0,3.0,92,0.45,,---,0.50,VWS V14.01,2013-04-19 09:16:00,
2013-04-19 05:17:00,54.9,52.6,29.53,NW,309,2.0,3.0,92,0.45,,---,0.51,VWS V14.01,2013-04-19 09:17:00,
2013-04-19 05:18:00,54.7,52.4,29.53,West,279,4.0,9.0,92,0.45,,---,0.51,VWS V14.01,2013-04-19 09:18:00,
2013-04-19 05:19:00,54.1,51.8,29.54,WNW,294,6.0,6.0,92,0.46,,---,0.52,VWS V14.01,2013-04-19 09:19:00,
2013-04-19 05:20:00,54.1,51.8,29.54,WNW,294,6.0,6.0,92,0.46,,---,0.52,VWS V14.01,2013-04-19 09:20:00,
2013-04-19 05:21:00,53.8,51.5,29.54,WNW,299,0.0,8.0,92,0.46,,---,0.52,VWS V14.01,2013-04-19 09:21:00,
2013-04-19 05:22:00,53.5,50.9,29.55,WNW,300,5.0,8.0,91,0.47,,---,0.53,VWS V14.01,2013-04-19 09:22:00,
2013-04-19 05:23:00,53.2,50.7,29.55,WNW,302,3.0,7.0,91,0.47,,---,0.53,VWS V14.01,2013-04-19 09:23:00,
2013-04-19 05:24:00,52.7,50.5,29.56,NW,308,2.0,5.0,92,0.48,,---,0.54,VWS V14.01,2013-04-19 09:24:00,
2013-04-19 05:25:00,52.7,50.5,29.56,NW,308,2.0,5.0,92,0.48,,---,0.54,VWS V14.01,2013-04-19 09:25:00,
2013-04-19 05:26:00,52.5,50.2,29.56,NW,322,3.0,8.0,92,0.49,,---,0.55,VWS V14.01,2013-04-19 09:26:00,
2013-04-19 05:27:00,52.3,50.0,29.56,NW,309,4.0,7.0,92,0.49,,---,0.55,VWS V14.01,2013-04-19 09:27:00,
2013-04-19 05:28:00,52.1,49.8,29.56,WNW,296,4.0,6.0,92,0.50,,---,0.56,VWS V14.01,2013-04-19 09:28:00,
2013-04-19 05:29:00,51.7,49.5,29.56,WNW,289,6.0,9.0,92,0.51,,---,0.57,VWS V14.01,2013-04-19 09:29:00,
2013-04-19 05:30:00,51.7,49.5,29.56,WNW,289,6.0,9.0,92,0.51,,---,0.57,VWS V14.01,2013-04-19 09:30:00,
2013-04-19 05:31:00,51.5,49.3,29.56,NW,319,0.0,6.0,92,0.51,,---,0.57,VWS V14.01,2013-04-19 09:31:00,
2013-04-19 05:32:00,51.3,49.1,29.56,WNW,295,9.0,9.0,92,0.50,,---,0.57,VWS V14.01,2013-04-19 09:32:00,
2013-04-19 05:33:00,51.2,49.2,29.56,NNW,338,2.0,9.0,93,0.51,,---,0.58,VWS V14.01,2013-04-19 09:33:00,
2013-04-19 05:34:00,51.0,49.0,29.56,WNW,301,5.0,5.0,93,0.52,,---,0.59,VWS V14.01,2013-04-19 09:34:00,
2013-04-19 05:35:00,51.0,49.0,29.56,WNW,301,5.0,5.0,93,0.52,,---,0.59,VWS V14.01,2013-04-19 09:35:00,
2013-04-19 05:36:00,50.9,49.0,29.56,NW,320,0.0,6.0,93,0.52,,---,0.59,VWS V14.01,2013-04-19 09:36:00,
2013-04-19 05:37:00,50.8,48.8,29.55,NW,313,0.0,8.0,93,0.52,,---,0.59,VWS V14.01,2013-04-19 09:37:00,
2013-04-19 05:38:00,50.7,48.8,29.54,WNW,291,1.0,4.0,93,0.52,,---,0.59,VWS V14.01,2013-04-19 09:38:00,
2013-04-19 05:39:00,50.5,48.6,29.55,NW,306,4.0,12.0,93,0.52,,---,0.60,VWS V14.01,2013-04-19 09:39:00,
2013-04-19 05:40:00,50.5,48.6,29.55,NW,306,4.0,12.0,93,0.52,,---,0.60,VWS V14.01,2013-04-19 09:40:00,
2013-04-19 05:41:00,50.3,48.4,29.55,WNW,302,0.0,5.0,93,0.52,,---,0.61,VWS V14.01,2013-04-19 09:41:00,
2013-04-19 05:42:00,50.2,48.3,29.56,WNW,284,3.0,13.0,93,0.51,,---,0.61,VWS V14.01,2013-04-19 09:42:00,
2013-04-19 05:43:00,50.1,48.2,29.57,West,279,4.0,5.0,93,0.51,,---,0.61,VWS V14.01,2013-04-19 09:43:00,
2013-04-19 05:44:00,49.5,47.3,29.57,WNW,290,3.0,8.0,92,0.48,,---,0.61,VWS V14.01,2013-04-19 09:44:00,
2013-04-19 05:45:00,49.5,47.3,29.57,WNW,290,3.0,8.0,92,0.48,,---,0.61,VWS V14.01,2013-04-19 09:45:00,
2013-04-19 05:46:00,49.3,47.1,29.57,NW,311,6.0,6.0,92,0.41,,---,0.61,VWS V14.01,2013-04-19 09:46:00,
2013-04-19 05:47:00,49.0,46.8,29.57,NNW,336,7.0,7.0,92,0.31,,---,0.62,VWS V14.01,2013-04-19 09:47:00,
2013-04-19 05:48:00,48.8,46.6,29.56,NW,313,4.0,7.0,92,0.29,,---,0.62,VWS V14.01,2013-04-19 09:48:00,
2013-04-19 05:49:00,48.5,46.3,29.57,NW,304,2.0,4.0,92,0.27,,---,0.62,VWS V14.01,2013-04-19 09:49:00,
2013-04-19 05:50:00,48.5,46.3,29.57,NW,304,2.0,4.0,92,0.27,,---,0.62,VWS V14.01,2013-04-19 09:50:00,
2013-04-19 05:51:00,48.3,46.1,29.57,NW,310,5.0,6.0,92,0.26,,---,0.62,VWS V14.01,2013-04-19 09:51:00,
2013-04-19 05:52:00,48.2,46.0,29.58,WSW,244,5.0,5.0,92,0.27,,---,0.63,VWS V14.01,2013-04-19 09:52:00,
2013-04-19 05:53:00,48.0,45.8,29.58,NW,313,7.0,12.0,92,0.26,,---,0.63,VWS V14.01,2013-04-19 09:53:00,
2013-04-19 05:54:00,47.7,45.8,29.58,NNW,328,4.0,5.0,93,0.25,,---,0.63,VWS V14.01,2013-04-19 09:54:00,
2013-04-19 05:55:00,47.7,45.8,29.58,NNW,328,4.0,5.0,93,0.25,,---,0.63,VWS V14.01,2013-04-19 09:55:00,
2013-04-19 05:56:00,47.6,45.4,29.58,WNW,286,5.0,5.0,92,0.25,,---,0.64,VWS V14.01,2013-04-19 09:56:00,
2013-04-19 05:57:00,47.5,45.6,29.58,WNW,284,5.0,8.0,93,0.25,,---,0.64,VWS V14.01,2013-04-19 09:57:00,
2013-04-19 05:58:00,47.4,45.5,29.58,NW,321,5.0,7.0,93,0.25,,---,0.64,VWS V14.01,2013-04-19 09:58:00,
2013-04-19 05:59:00,47.2,45.3,29.57,NNW,338,0.0,7.0,93,0.24,,---,0.64,VWS V14.01,2013-04-19 09:59:00,
2013-04-19 06:00:00,47.2,45.3,29.57,NNW,338,0.0,7.0,93,0.24,,---,0.64,VWS V14.01,2013-04-19 10:00:00,
2013-04-19 06:01:00,47.2,45.3,29.57,NW,321,1.0,1.0,93,0.25,,---,0.65,VWS V14.01,2013-04-19 10:01:00,
2013-04-19 06:02:00,47.1,45.2,29.58,NW,326,1.0,6.0,93,0.24,,---,0.65,VWS V14.01,2013-04-19 10:02:00,
2013-04-19 06:03:00,47.0,45.1,29.58,WNW,286,1.0,9.0,93,0.24,,---,0.65,VWS V14.01,2013-04-19 10:03:00,
2013-04-19 06:04:00,46.9,45.0,29.58,WNW,293,2.0,8.0,93,0.23,,---,0.66,VWS V14.01,2013-04-19 10:04:00,
2013-04-19 06:05:00,46.9,45.0,29.58,WNW,293,2.0,8.0,93,0.23,,---,0.66,VWS V14.01,2013-04-19 10:05:00,
2013-04-19 06:06:00,46.8,44.9,29.58,North,349,6.0,6.0,93,0.23,,---,0.66,VWS V14.01,2013-04-19 10:06:00,
2013-04-19 06:07:00,46.7,44.8,29.58,WNW,282,4.0,8.0,93,0.22,,---,0.66,VWS V14.01,2013-04-19 10:07:00,
2013-04-19 06:08:00,46.6,44.7,29.58,WNW,302,3.0,4.0,93,0.21,,---,0.66,VWS V14.01,2013-04-19 10:08:00,
2013-04-19 06:09:00,46.4,44.5,29.59,WSW,250,5.0,5.0,93,0.21,,---,0.67,VWS V14.01,2013-04-19 10:09:00,
2013-04-19 06:10:00,46.4,44.5,29.59,WSW,250,5.0,5.0,93,0.21,,---,0.67,VWS V14.01,2013-04-19 10:10:00,
2013-04-19 06:11:00,46.3,44.4,29.59,NNW,340,1.0,5.0,93,0.21,,---,0.67,VWS V14.01,2013-04-19 10:11:00,
2013-04-19 06:12:00,46.2,44.3,29.60,NW,323,3.0,3.0,93,0.20,,---,0.67,VWS V14.01,2013-04-19 10:12:00,
2013-04-19 06:13:00,46.1,44.2,29.60,NW,311,2.0,7.0,93,0.20,,---,0.67,VWS V14.01,2013-04-19 10:13:00,
2013-04-19 06:14:00,46.1,44.2,29.60,West,273,2.0,4.0,93,0.20,,---,0.68,VWS V14.01,2013-04-19 10:14:00,
2013-04-19 06:15:00,46.0,44.4,29.60,NW,315,2.0,4.0,94,0.19,,---,0.68,VWS V14.01,2013-04-19 10:15:00,
2013-04-19 06:16:00,46.0,44.4,29.59,WNW,292,2.0,6.0,94,0.19,,---,0.68,VWS V14.01,2013-04-19 10:16:00,
2013-04-19 06:17:00,45.9,44.3,29.59,WSW,248,0.0,5.0,94,0.18,,---,0.68,VWS V14.01,2013-04-19 10:17:00,
2013-04-19 06:18:00,45.9,44.3,29.59,WNW,292,3.0,5.0,94,0.18,,---,0.69,VWS V14.01,2013-04-19 10:18:00,
2013-04-19 06:19:00,45.8,44.2,29.59,NW,315,0.0,2.0,94,0.18,,---,0.69,VWS V14.01,2013-04-19 10:19:00,
2013-04-19 06:20:00,45.8,44.2,29.60,NW,315,1.0,2.0,94,0.17,,---,0.69,VWS V14.01,2013-04-19 10:20:00,
2013-04-19 06:21:00,45.8,44.2,29.60,NW,315,3.0,8.0,94,0.17,,---,0.69,VWS V14.01,2013-04-19 10:21:00,
2013-04-19 06:22:00,45.8,44.2,29.60,WNW,292,4.0,6.0,94,0.17,,---,0.69,VWS V14.01,2013-04-19 10:22:00,
2013-04-19 06:23:00,45.8,44.2,29.60,NW,315,2.0,4.0,94,0.16,,---,0.69,VWS V14.01,2013-04-19 10:23:00,
2013-04-19 06:24:00,45.7,44.1,29.61,West,270,1.0,4.0,94,0.16,,---,0.69,VWS V14.01,2013-04-19 10:24:00,
2013-04-19 06:25:00,45.7,44.1,29.61,NW,315,2.0,5.0,94,0.15,,---,0.69,VWS V14.01,2013-04-19 10:25:00,
2013-04-19 06:26:00,45.7,44.1,29.61,NW,315,2.0,6.0,94,0.15,,---,0.69,VWS V14.01,2013-04-19 10:26:00,
2013-04-19 06:27:00,45.6,44.0,29.61,NW,315,1.0,4.0,94,0.14,,---,0.69,VWS V14.01,2013-04-19 10:27:00,
2013-04-19 06:28:00,45.6,44.2,29.61,NW,315,1.0,5.0,95,0.14,,---,0.69,VWS V14.01,2013-04-19 10:28:00,
2013-04-19 06:29:00,45.6,44.2,29.61,WNW,292,3.0,5.0,95,0.13,,---,0.69,VWS V14.01,2013-04-19 10:29:00,
2013-04-19 06:30:00,45.6,44.2,29.61,WNW,292,3.0,5.0,95,0.13,,---,0.69,VWS V14.01,2013-04-19 10:30:00,
2013-04-19 06:31:00,45.5,44.2,29.61,NNW,331,1.0,3.0,95,0.12,,---,0.69,VWS V14.01,2013-04-19 10:31:00,
2013-04-19 06:32:00,45.4,44.1,29.61,NW,324,3.0,5.0,95,0.12,,---,0.69,VWS V14.01,2013-04-19 10:32:00,
2013-04-19 06:33:00,45.4,44.1,29.61,NW,311,2.0,3.0,95,0.12,,---,0.69,VWS V14.01,2013-04-19 10:33:00,
2013-04-19 06:34:00,45.4,43.8,29.61,NW,311,2.0,6.0,94,0.11,,---,0.69,VWS V14.01,2013-04-19 10:34:00,
2013-04-19 06:35:00,45.4,44.1,29.61,NW,326,0.0,2.0,95,0.11,,---,0.69,VWS V14.01,2013-04-19 10:35:00,
2013-04-19 06:36:00,45.4,44.0,29.61,WNW,299,3.0,3.0,95,0.10,,---,0.69,VWS V14.01,2013-04-19 10:36:00,
2013-04-19 06:37:00,45.4,44.1,29.61,WNW,299,3.0,3.0,95,0.10,,---,0.69,VWS V14.01,2013-04-19 10:37:00,
2013-04-19 06:38:00,45.4,44.1,29.61,WNW,303,0.0,4.0,95,0.10,,---,0.69,VWS V14.01,2013-04-19 10:38:00,
2013-04-19 06:39:00,45.4,44.1,29.61,NW,307,0.0,4.0,95,0.10,,---,0.69,VWS V14.01,2013-04-19 10:39:00,
2013-04-19 06:40:00,45.3,44.0,29.61,NW,307,0.0,1.0,95,0.09,,---,0.69,VWS V14.01,2013-04-19 10:40:00,
2013-04-19 06:41:00,45.2,43.9,29.62,WNW,302,3.0,7.0,95,0.08,,---,0.69,VWS V14.01,2013-04-19 10:41:00,
2013-04-19 06:42:00,45.2,43.9,29.62,WNW,302,3.0,7.0,95,0.08,,---,0.69,VWS V14.01,2013-04-19 10:42:00,
2013-04-19 06:43:00,45.2,43.9,29.62,NW,304,0.0,3.0,95,0.08,,---,0.69,VWS V14.01,2013-04-19 10:43:00,
2013-04-19 06:44:00,45.2,43.9,29.62,WNW,300,1.0,4.0,95,0.08,,---,0.69,VWS V14.01,2013-04-19 10:44:00,
2013-04-19 06:45:00,45.2,43.9,29.62,WNW,298,3.0,4.0,95,0.09,,---,0.70,VWS V14.01,2013-04-19 10:45:00,
2013-04-19 06:46:00,45.1,43.8,29.63,NW,309,3.0,4.0,95,0.09,,---,0.70,VWS V14.01,2013-04-19 10:46:00,
2013-04-19 06:47:00,45.1,43.8,29.63,NW,309,3.0,4.0,95,0.09,,---,0.70,VWS V14.01,2013-04-19 10:47:00,
2013-04-19 06:48:00,45.1,43.8,29.63,NW,309,0.0,3.0,95,0.08,,---,0.70,VWS V14.01,2013-04-19 10:48:00,
2013-04-19 06:49:00,45.1,43.8,29.63,NW,309,0.0,1.0,95,0.08,,---,0.70,VWS V14.01,2013-04-19 10:49:00,
2013-04-19 06:50:00,45.1,43.8,29.62,NW,309,0.0,3.0,95,0.08,,---,0.70,VWS V14.01,2013-04-19 10:50:00,
2013-04-19 06:51:00,45.0,43.7,29.62,NW,304,2.0,4.0,95,0.08,,---,0.70,VWS V14.01,2013-04-19 10:51:00,
2013-04-19 06:52:00,45.0,43.7,29.62,NW,304,2.0,4.0,95,0.08,,---,0.70,VWS V14.01,2013-04-19 10:52:00,
2013-04-19 06:53:00,45.0,43.7,29.62,NW,304,0.0,2.0,95,0.07,,---,0.70,VWS V14.01,2013-04-19 10:53:00,
2013-04-19 06:54:00,45.0,43.7,29.63,WNW,297,0.0,7.0,95,0.07,,---,0.70,VWS V14.01,2013-04-19 10:54:00,
2013-04-19 06:55:00,45.0,43.7,29.62,WNW,282,0.0,3.0,95,0.07,,---,0.70,VWS V14.01,2013-04-19 10:55:00,
2013-04-19 06:56:00,45.0,43.7,29.62,NW,312,2.0,4.0,95,0.06,,---,0.70,VWS V14.01,2013-04-19 10:56:00,
2013-04-19 06:57:00,45.0,43.7,29.62,NW,312,2.0,4.0,95,0.06,,---,0.70,VWS V14.01,2013-04-19 10:57:00,
2013-04-19 06:58:00,45.0,43.7,29.62,WNW,287,1.0,4.0,95,0.06,,---,0.70,VWS V14.01,2013-04-19 10:58:00,
2013-04-19 06:59:00,45.0,43.7,29.63,NW,305,2.0,2.0,95,0.06,,---,0.70,VWS V14.01,2013-04-19 10:59:00,
2013-04-19 07:00:00,45.0,43.7,29.63,WNW,282,3.0,4.0,95,0.06,,---,0.70,VWS V14.01,2013-04-19 11:00:00,
2013-04-19 07:01:00,45.1,43.8,29.64,NW,306,1.0,7.0,95,0.05,,---,0.70,VWS V14.01,2013-04-19 11:01:00,
2013-04-19 07:02:00,45.1,43.8,29.64,NW,306,1.0,7.0,95,0.05,,---,0.70,VWS V14.01,2013-04-19 11:02:00,
2013-04-19 07:03:00,45.1,43.8,29.64,WNW,294,4.0,5.0,95,0.05,,---,0.70,VWS V14.01,2013-04-19 11:03:00,
2013-04-19 07:04:00,45.0,43.7,29.64,NW,309,0.0,4.0,95,0.05,,---,0.70,VWS V14.01,2013-04-19 11:04:00,
2013-04-19 07:05:00,45.1,43.8,29.64,NW,309,2.0,2.0,95,0.06,,---,0.71,VWS V14.01,2013-04-19 11:05:00,
2013-04-19 07:06:00,45.1,43.8,29.64,WNW,299,3.0,7.0,95,0.05,,---,0.71,VWS V14.01,2013-04-19 11:06:00,
2013-04-19 07:07:00,45.1,43.8,29.64,WNW,299,3.0,7.0,95,0.05,,---,0.71,VWS V14.01,2013-04-19 11:07:00,
2013-04-19 07:08:00,45.1,43.8,29.64,WNW,298,0.0,3.0,95,0.05,,---,0.71,VWS V14.01,2013-04-19 11:08:00,
2013-04-19 07:09:00,45.0,43.7,29.64,West,261,3.0,5.0,95,0.05,,---,0.71,VWS V14.01,2013-04-19 11:09:00,
2013-04-19 07:10:00,45.1,43.8,29.64,NW,306,2.0,3.0,95,0.04,,---,0.71,VWS V14.01,2013-04-19 11:10:00,
2013-04-19 07:11:00,45.0,43.7,29.64,West,269,3.0,7.0,95,0.04,,---,0.71,VWS V14.01,2013-04-19 11:11:00,
2013-04-19 07:12:00,45.0,43.7,29.64,West,269,3.0,7.0,95,0.04,,---,0.71,VWS V14.01,2013-04-19 11:12:00,
2013-04-19 07:13:00,45.0,43.7,29.65,SW,233,1.0,5.0,95,0.04,,---,0.71,VWS V14.01,2013-04-19 11:13:00,
2013-04-19 07:14:00,45.0,43.7,29.65,West,278,4.0,7.0,95,0.04,,---,0.71,VWS V14.01,2013-04-19 11:14:00,
2013-04-19 07:15:00,44.9,43.6,29.65,West,273,4.0,6.0,95,0.03,,---,0.71,VWS V14.01,2013-04-19 11:15:00,
2013-04-19 07:16:00,44.8,43.5,29.66,West,264,6.0,9.0,95,0.03,,---,0.71,VWS V14.01,2013-04-19 11:16:00,
2013-04-19 07:17:00,44.8,43.5,29.66,West,264,6.0,9.0,95,0.03,,---,0.71,VWS V14.01,2013-04-19 11:17:00,
2013-04-19 07:18:00,44.8,43.5,29.66,West,265,6.0,6.0,95,0.03,,---,0.71,VWS V14.01,2013-04-19 11:18:00,
2013-04-19 07:19:00,44.7,43.4,29.65,West,260,6.0,7.0,95,0.02,,---,0.71,VWS V14.01,2013-04-19 11:19:00,
2013-04-19 07:20:00,44.6,43.3,29.65,West,259,7.0,9.0,95,0.02,,---,0.71,VWS V14.01,2013-04-19 11:20:00,
2013-04-19 07:21:00,44.5,43.2,29.66,NNW,331,3.0,8.0,95,0.02,,---,0.71,VWS V14.01,2013-04-19 11:21:00,
2013-04-19 07:22:00,44.5,42.9,29.65,WNW,298,3.0,9.0,94,0.02,,---,0.71,VWS V14.01,2013-04-19 11:22:00,
2013-04-19 07:23:00,44.5,42.9,29.65,WNW,298,3.0,9.0,94,0.02,,---,0.71,VWS V14.01,2013-04-19 11:23:00,
2013-04-19 07:24:00,44.5,42.9,29.65,WNW,298,1.0,6.0,94,0.02,,---,0.71,VWS V14.01,2013-04-19 11:24:00,
2013-04-19 07:25:00,44.4,42.8,29.65,West,260,6.0,6.0,94,0.02,,---,0.71,VWS V14.01,2013-04-19 11:25:00,
2013-04-19 07:26:00,44.4,42.8,29.66,West,264,2.0,10.0,94,0.02,,---,0.71,VWS V14.01,2013-04-19 11:26:00,
2013-04-19 07:27:00,44.3,42.7,29.65,WSW,258,2.0,3.0,94,0.02,,---,0.71,VWS V14.01,2013-04-19 11:27:00,
2013-04-19 07:28:00,44.3,42.7,29.65,WSW,258,2.0,3.0,94,0.02,,---,0.71,VWS V14.01,2013-04-19 11:28:00,
2013-04-19 07:29:00,44.3,42.7,29.66,WSW,258,2.0,4.0,94,0.02,,---,0.71,VWS V14.01,2013-04-19 11:29:00,
2013-04-19 07:30:00,44.3,42.7,29.65,West,273,5.0,10.0,94,0.02,,---,0.71,VWS V14.01,2013-04-19 11:30:00,
2013-04-19 07:31:00,44.3,42.7,29.65,WNW,301,3.0,6.0,94,0.02,,---,0.71,VWS V14.01,2013-04-19 11:31:00,
2013-04-19 07:32:00,44.3,42.7,29.66,West,280,2.0,4.0,94,0.02,,---,0.71,VWS V14.01,2013-04-19 11:32:00,
2013-04-19 07:33:00,44.3,42.7,29.66,West,280,2.0,4.0,94,0.02,,---,0.71,VWS V14.01,2013-04-19 11:33:00,
2013-04-19 07:34:00,44.3,42.7,29.66,WSW,253,0.0,5.0,94,0.02,,---,0.71,VWS V14.01,2013-04-19 11:34:00,
2013-04-19 07:35:00,44.2,42.6,29.66,WNW,293,1.0,6.0,94,0.02,,---,0.71,VWS V14.01,2013-04-19 11:35:00,
2013-04-19 07:36:00,44.2,42.6,29.67,WSW,244,1.0,4.0,94,0.02,,---,0.71,VWS V14.01,2013-04-19 11:36:00,
2013-04-19 07:37:00,44.2,42.6,29.67,NW,325,0.0,6.0,94,0.02,,---,0.71,VWS V14.01,2013-04-19 11:37:00,
2013-04-19 07:38:00,44.2,42.6,29.67,NW,325,0.0,6.0,94,0.02,,---,0.71,VWS V14.01,2013-04-19 11:38:00,
2013-04-19 07:39:00,44.2,42.6,29.67,WNW,290,2.0,6.0,94,0.02,,---,0.71,VWS V14.01,2013-04-19 11:39:00,
2013-04-19 07:40:00,44.2,42.6,29.67,WNW,284,1.0,4.0,94,0.02,,---,0.71,VWS V14.01,2013-04-19 11:40:00,
2013-04-19 07:41:00,44.2,42.6,29.67,West,273,5.0,7.0,94,0.02,,---,0.71,VWS V14.01,2013-04-19 11:41:00,
2013-04-19 07:42:00,44.1,42.5,29.67,West,281,3.0,7.0,94,0.02,,---,0.71,VWS V14.01,2013-04-19 11:42:00,
2013-04-19 07:43:00,44.1,42.5,29.67,West,281,3.0,7.0,94,0.02,,---,0.71,VWS V14.01,2013-04-19 11:43:00,
2013-04-19 07:44:00,44.1,42.5,29.67,WNW,286,2.0,5.0,94,0.02,,---,0.71,VWS V14.01,2013-04-19 11:44:00,
2013-04-19 07:45:00,44.1,42.5,29.67,SW,234,4.0,4.0,94,0.02,,---,0.71,VWS V14.01,2013-04-19 11:45:00,
2013-04-19 07:46:00,44.1,42.5,29.67,West,274,4.0,14.0,94,0.01,,---,0.71,VWS V14.01,2013-04-19 11:46:00,
2013-04-19 07:47:00,44.0,42.4,29.68,WNW,284,4.0,9.0,94,0.01,,---,0.71,VWS V14.01,2013-04-19 11:47:00,
2013-04-19 07:48:00,44.0,42.4,29.68,WNW,284,4.0,9.0,94,0.01,,---,0.71,VWS V14.01,2013-04-19 11:48:00,
2013-04-19 07:49:00,43.9,42.3,29.68,WNW,288,5.0,6.0,94,0.01,,---,0.71,VWS V14.01,2013-04-19 11:49:00,
2013-04-19 07:50:00,43.9,42.3,29.68,WSW,244,2.0,6.0,94,0.01,,---,0.71,VWS V14.01,2013-04-19 11:50:00,
2013-04-19 07:51:00,43.9,42.3,29.68,NW,316,4.0,5.0,94,0.01,,---,0.71,VWS V14.01,2013-04-19 11:51:00,
2013-04-19 07:52:00,43.8,42.2,29.68,WSW,245,6.0,7.0,94,0.01,,---,0.71,VWS V14.01,2013-04-19 11:52:00,
2013-04-19 07:53:00,43.8,42.2,29.68,WSW,245,6.0,7.0,94,0.01,,---,0.71,VWS V14.01,2013-04-19 11:53:00,
2013-04-19 07:54:00,43.8,41.9,29.68,WNW,302,8.0,8.0,93,0.01,,---,0.71,VWS V14.01,2013-04-19 11:54:00,
2013-04-19 07:55:00,43.7,41.8,29.68,West,263,8.0,13.0,93,0.01,,---,0.71,VWS V14.01,2013-04-19 11:55:00,
2013-04-19 07:56:00,43.6,41.7,29.68,West,279,7.0,9.0,93,0.01,,---,0.71,VWS V14.01,2013-04-19 11:56:00,
2013-04-19 07:57:00,43.5,41.3,29.68,West,281,6.0,7.0,92,0.01,,---,0.71,VWS V14.01,2013-04-19 11:57:00,
2013-04-19 07:58:00,43.5,41.3,29.68,West,281,6.0,7.0,92,0.01,,---,0.71,VWS V14.01,2013-04-19 11:58:00,
2013-04-19 07:59:00,43.5,41.3,29.68,West,265,4.0,9.0,92,0.01,,---,0.71,VWS V14.01,2013-04-19 11:59:00,
2013-04-19 08:00:00,43.4,41.2,29.68,West,275,4.0,9.0,92,0.01,,---,0.71,VWS V14.01,2013-04-19 12:00:00,
2013-04-19 08:01:00,43.4,41.2,29.68,West,267,4.0,6.0,92,0.01,,---,0.71,VWS V14.01,2013-04-19 12:01:00,
2013-04-19 08:02:00,43.4,41.2,29.68,WSW,252,1.0,3.0,92,0.01,,---,0.71,VWS V14.01,2013-04-19 12:02:00,
2013-04-19 08:03:00,43.4,41.2,29.68,WSW,252,1.0,3.0,92,0.01,,---,0.71,VWS V14.01,2013-04-19 12:03:00,
2013-04-19 08:04:00,43.4,41.2,29.68,NW,310,4.0,4.0,92,0.01,,---,0.71,VWS V14.01,2013-04-19 12:04:00,
2013-04-19 08:05:00,43.4,41.2,29.68,WNW,285,2.0,7.0,92,0.01,,---,0.71,VWS V14.01,2013-04-19 12:05:00,
2013-04-19 08:06:00,43.5,41.6,29.68,NW,317,3.0,5.0,93,0.00,,---,0.71,VWS V14.01,2013-04-19 12:06:00,
2013-04-19 08:07:00,43.4,41.2,29.68,WNW,294,4.0,7.0,92,0.00,,---,0.71,VWS V14.01,2013-04-19 12:07:00,
2013-04-19 08:08:00,43.4,41.2,29.68,WNW,294,4.0,7.0,92,0.00,,---,0.71,VWS V14.01,2013-04-19 12:08:00,
2013-04-19 08:09:00,43.4,41.2,29.68,WNW,284,3.0,8.0,92,0.00,,---,0.71,VWS V14.01,2013-04-19 12:09:00,
2013-04-19 08:10:00,43.3,41.1,29.68,WNW,299,0.0,3.0,92,0.00,,---,0.71,VWS V14.01,2013-04-19 12:10:00,
2013-04-19 08:11:00,43.4,41.5,29.68,West,265,5.0,5.0,93,0.00,,---,0.71,VWS V14.01,2013-04-19 12:11:00,
2013-04-19 08:12:00,43.4,41.5,29.68,WNW,292,3.0,3.0,93,0.00,,---,0.71,VWS V14.01,2013-04-19 12:12:00,
2013-04-19 08:13:00,43.4,41.5,29.68,WNW,292,3.0,3.0,93,0.00,,---,0.71,VWS V14.01,2013-04-19 12:13:00,
2013-04-19 08:14:00,43.4,41.5,29.68,WSW,246,5.0,5.0,93,0.00,,---,0.71,VWS V14.01,2013-04-19 12:14:00,
2013-04-19 08:15:00,43.3,41.4,29.68,West,277,0.0,5.0,93,0.00,,---,0.71,VWS V14.01,2013-04-19 12:15:00,
2013-04-19 08:16:00,43.4,41.5,29.68,NW,308,4.0,5.0,93,0.00,,---,0.71,VWS V14.01,2013-04-19 12:16:00,
2013-04-19 08:17:00,43.4,41.5,29.68,WNW,295,4.0,5.0,93,0.00,,---,0.71,VWS V14.01,2013-04-19 12:17:00,
2013-04-19 08:18:00,43.4,41.5,29.68,WNW,295,4.0,5.0,93,0.00,,---,0.71,VWS V14.01,2013-04-19 12:18:00,
2013-04-19 08:19:00,43.4,41.5,29.68,West,268,3.0,8.0,93,0.00,,---,0.71,VWS V14.01,2013-04-19 12:19:00,
2013-04-19 08:20:00,43.3,41.4,29.69,WSW,238,2.0,5.0,93,0.00,,---,0.71,VWS V14.01,2013-04-19 12:20:00,
2013-04-19 08:21:00,43.3,41.4,29.68,West,263,0.0,3.0,93,0.00,,---,0.71,VWS V14.01,2013-04-19 12:21:00,
2013-04-19 08:22:00,43.3,41.4,29.69,West,268,1.0,3.0,93,0.00,,---,0.71,VWS V14.01,2013-04-19 12:22:00,
2013-04-19 08:23:00,43.3,41.4,29.69,West,268,1.0,3.0,93,0.00,,---,0.71,VWS V14.01,2013-04-19 12:23:00,
2013-04-19 08:24:00,43.3,41.4,29.69,West,269,0.0,3.0,93,0.00,,---,0.71,VWS V14.01,2013-04-19 12:24:00,
2013-04-19 08:25:00,43.3,41.4,29.69,WNW,296,1.0,4.0,93,0.00,,---,0.71,VWS V14.01,2013-04-19 12:25:00,
2013-04-19 08:26:00,43.3,41.4,29.69,WNW,296,3.0,3.0,93,0.00,,---,0.71,VWS V14.01,2013-04-19 12:26:00,
2013-04-19 08:27:00,43.4,41.5,29.69,North,350,4.0,4.0,93,0.00,,---,0.71,VWS V14.01,2013-04-19 12:27:00,
2013-04-19 08:28:00,43.4,41.5,29.69,North,350,4.0,4.0,93,0.00,,---,0.71,VWS V14.01,2013-04-19 12:28:00,
2013-04-19 08:29:00,43.3,41.4,29.69,West,273,0.0,6.0,93,0.00,,---,0.71,VWS V14.01,2013-04-19 12:29:00,
2013-04-19 08:30:00,43.3,41.4,29.69,NNW,342,2.0,9.0,93,0.00,,---,0.71,VWS V14.01,2013-04-19 12:30:00,
2013-04-19 08:31:00,43.2,41.3,29.69,NW,313,5.0,6.0,93,0.00,,---,0.71,VWS V14.01,2013-04-19 12:31:00,
2013-04-19 08:32:00,43.2,41.3,29.69,NW,304,4.0,4.0,93,0.00,,---,0.71,VWS V14.01,2013-04-19 12:32:00,
2013-04-19 08:33:00,43.2,41.3,29.69,NW,304,4.0,4.0,93,0.00,,---,0.71,VWS V14.01,2013-04-19 12:33:00,
2013-04-19 08:34:00,43.2,41.3,29.69,NW,309,2.0,4.0,93,0.00,,---,0.71,VWS V14.01,2013-04-19 12:34:00,
2013-04-19 08:35:00,43.1,41.2,29.69,WNW,298,2.0,3.0,93,0.00,,---,0.71,VWS V14.01,2013-04-19 12:35:00,
2013-04-19 08:36:00,43.1,41.2,29.69,WNW,298,0.0,2.0,93,0.00,,---,0.71,VWS V14.01,2013-04-19 12:36:00,
2013-04-19 08:37:00,43.1,41.2,29.70,WNW,293,3.0,3.0,93,0.00,,---,0.71,VWS V14.01,2013-04-19 12:37:00,
2013-04-19 08:38:00,43.1,41.2,29.70,WNW,293,3.0,3.0,93,0.00,,---,0.71,VWS V14.01,2013-04-19 12:38:00,
2013-04-19 08:39:00,43.1,41.2,29.70,West,277,2.0,3.0,93,0.00,,---,0.71,VWS V14.01,2013-04-19 12:39:00,
2013-04-19 08:40:00,43.1,41.2,29.70,WSW,247,10.0,10.0,93,0.00,,---,0.71,VWS V14.01,2013-04-19 12:40:00,
2013-04-19 08:41:00,43.0,41.1,29.70,WNW,283,3.0,10.0,93,0.00,,---,0.71,VWS V14.01,2013-04-19 12:41:00,
2013-04-19 08:42:00,42.9,41.3,29.70,West,265,3.0,8.0,94,0.00,,---,0.71,VWS V14.01,2013-04-19 12:42:00,
2013-04-19 08:43:00,42.9,41.3,29.70,West,265,3.0,8.0,94,0.00,,---,0.71,VWS V14.01,2013-04-19 12:43:00,
2013-04-19 08:44:00,42.9,41.3,29.69,West,277,7.0,8.0,94,0.00,,---,0.71,VWS V14.01,2013-04-19 12:44:00,
2013-04-19 08:45:00,42.9,41.3,29.70,WSW,242,4.0,7.0,94,0.00,,---,0.71,VWS V14.01,2013-04-19 12:45:00,
2013-04-19 08:46:00,42.8,41.2,29.70,WNW,297,3.0,11.0,94,0.00,,---,0.71,VWS V14.01,2013-04-19 12:46:00,
2013-04-19 08:47:00,42.7,41.1,29.70,WNW,284,3.0,5.0,94,0.00,,---,0.71,VWS V14.01,2013-04-19 12:47:00,
2013-04-19 08:48:00,42.7,41.1,29.70,WNW,284,3.0,5.0,94,0.00,,---,0.71,VWS V14.01,2013-04-19 12:48:00,
2013-04-19 08:49:00,42.7,41.1,29.70,West,281,2.0,3.0,94,0.00,,---,0.71,VWS V14.01,2013-04-19 12:49:00,
2013-04-19 08:50:00,42.6,41.0,29.70,WNW,295,2.0,6.0,94,0.00,,---,0.71,VWS V14.01,2013-04-19 12:50:00,
2013-04-19 08:51:00,42.6,41.0,29.70,WSW,251,5.0,5.0,94,0.00,,---,0.71,VWS V14.01,2013-04-19 12:51:00,
2013-04-19 08:52:00,42.4,40.5,29.71,West,281,5.0,10.0,93,0.00,,---,0.71,VWS V14.01,2013-04-19 12:52:00,
2013-04-19 08:53:00,42.4,40.5,29.71,West,281,5.0,10.0,93,0.00,,---,0.71,VWS V14.01,2013-04-19 12:53:00,
2013-04-19 08:54:00,42.2,40.3,29.71,West,269,9.0,14.0,93,0.00,,---,0.71,VWS V14.01,2013-04-19 12:54:00,
2013-04-19 08:55:00,42.0,40.1,29.71,WNW,296,7.0,11.0,93,0.00,,---,0.71,VWS V14.01,2013-04-19 12:55:00,
2013-04-19 08:56:00,41.9,40.0,29.70,NNW,329,6.0,10.0,93,0.00,,---,0.71,VWS V14.01,2013-04-19 12:56:00,
2013-04-19 08:57:00,41.6,39.7,29.71,WNW,292,1.0,12.0,93,0.00,,---,0.71,VWS V14.01,2013-04-19 12:57:00,
2013-04-19 08:58:00,41.6,39.7,29.71,WNW,292,1.0,12.0,93,0.00,,---,0.71,VWS V14.01,2013-04-19 12:58:00,
2013-04-19 08:59:00,41.5,39.6,29.71,WSW,247,6.0,7.0,93,0.00,,---,0.71,VWS V14.01,2013-04-19 12:59:00,
2013-04-19 09:00:00,41.4,39.5,29.71,West,266,5.0,7.0,93,0.00,,---,0.71,VWS V14.01,2013-04-19 13:00:00,
2013-04-19 09:01:00,41.3,39.4,29.71,West,277,5.0,6.0,93,0.00,,---,0.71,VWS V14.01,2013-04-19 13:01:00,
2013-04-19 09:02:00,41.1,39.2,29.72,West,268,0.0,5.0,93,0.00,,---,0.71,VWS V14.01,2013-04-19 13:02:00,
2013-04-19 09:03:00,41.1,39.2,29.72,West,268,0.0,5.0,93,0.00,,---,0.71,VWS V14.01,2013-04-19 13:03:00,
2013-04-19 09:04:00,41.1,39.2,29.72,NW,304,1.0,9.0,93,0.00,,---,0.71,VWS V14.01,2013-04-19 13:04:00,
2013-04-19 09:05:00,41.0,39.1,29.72,West,263,2.0,6.0,93,0.00,,---,0.71,VWS V14.01,2013-04-19 13:05:00,
2013-04-19 09:06:00,41.0,39.1,29.72,West,263,1.0,3.0,93,0.00,,---,0.71,VWS V14.01,2013-04-19 13:06:00,
2013-04-19 09:07:00,40.9,39.0,29.72,West,272,2.0,7.0,93,0.00,,---,0.71,VWS V14.01,2013-04-19 13:07:00,
2013-04-19 09:08:00,40.9,39.0,29.72,West,272,2.0,7.0,93,0.00,,---,0.71,VWS V14.01,2013-04-19 13:08:00,
2013-04-19 09:09:00,40.8,38.9,29.72,WSW,251,8.0,12.0,93,0.00,,---,0.71,VWS V14.01,2013-04-19 13:09:00,
2013-04-19 09:10:00,40.7,38.8,29.72,WSW,257,6.0,10.0,93,0.00,,---,0.71,VWS V14.01,2013-04-19 13:10:00,
2013-04-19 09:11:00,40.7,38.8,29.72,WNW,302,4.0,10.0,93,0.00,,---,0.71,VWS V14.01,2013-04-19 13:11:00,
2013-04-19 09:12:00,40.6,38.7,29.72,WNW,298,7.0,13.0,93,0.00,,---,0.71,VWS V14.01,2013-04-19 13:12:00,
2013-04-19 09:13:00,40.6,38.7,29.72,WNW,298,7.0,13.0,93,0.00,,---,0.71,VWS V14.01,2013-04-19 13:13:00,
2013-04-19 09:14:00,40.6,38.7,29.72,West,259,6.0,9.0,93,0.00,,---,0.71,VWS V14.01,2013-04-19 13:14:00,
2013-04-19 09:15:00,40.5,38.6,29.72,WSW,258,3.0,7.0,93,0.00,,---,0.71,VWS V14.01,2013-04-19 13:15:00,
2013-04-19 09:16:00,40.5,38.6,29.72,WNW,290,3.0,11.0,93,0.00,,---,0.71,VWS V14.01,2013-04-19 13:16:00,
2013-04-19 09:17:00,40.5,38.6,29.72,WNW,298,1.0,5.0,93,0.00,,---,0.71,VWS V14.01,2013-04-19 13:17:00,
2013-04-19 09:18:00,40.5,38.6,29.72,WNW,298,1.0,5.0,93,0.00,,---,0.71,VWS V14.01,2013-04-19 13:18:00,
2013-04-19 09:19:00,40.6,38.7,29.72,West,276,6.0,6.0,93,0.00,,---,0.71,VWS V14.01,2013-04-19 13:19:00,
2013-04-19 09:20:00,40.6,38.7,29.72,West,269,3.0,7.0,93,0.00,,---,0.71,VWS V14.01,2013-04-19 13:20:00,
2013-04-19 09:21:00,40.6,38.7,29.73,WSW,251,3.0,6.0,93,0.00,,---,0.71,VWS V14.01,2013-04-19 13:21:00,
2013-04-19 09:22:00,40.7,38.8,29.73,WSW,255,4.0,5.0,93,0.00,,---,0.71,VWS V14.01,2013-04-19 13:22:00,
2013-04-19 09:23:00,40.7,38.8,29.73,WSW,255,4.0,5.0,93,0.00,,---,0.71,VWS V14.01,2013-04-19 13:23:00,
2013-04-19 09:24:00,40.8,38.9,29.73,SW,230,7.0,8.0,93,0.00,,---,0.71,VWS V14.01,2013-04-19 13:24:00,
2013-04-19 09:25:00,40.8,38.9,29.73,WSW,254,5.0,8.0,93,0.00,,---,0.71,VWS V14.01,2013-04-19 13:25:00,
2013-04-19 09:26:00,40.9,39.0,29.73,West,264,6.0,6.0,93,0.00,,---,0.71,VWS V14.01,2013-04-19 13:26:00,
2013-04-19 09:27:00,40.9,39.0,29.73,WSW,257,3.0,3.0,93,0.00,,---,0.71,VWS V14.01,2013-04-19 13:27:00,
2013-04-19 09:28:00,40.9,39.0,29.73,WSW,257,3.0,3.0,93,0.00,,---,0.71,VWS V14.01,2013-04-19 13:28:00,
2013-04-19 09:29:00,41.0,39.1,29.73,WSW,257,5.0,8.0,93,0.00,,---,0.71,VWS V14.01,2013-04-19 13:29:00,
2013-04-19 09:30:00,41.0,40.5,29.73,West,270,1.0,5.0,98,0.00,,---,0.71,VWS V14.01,2013-04-19 13:30:00,
2013-04-19 09:31:00,41.0,39.1,29.73,West,270,0.0,2.0,93,0.00,,---,0.71,VWS V14.01,2013-04-19 13:31:00,
2013-04-19 09:32:00,41.0,38.9,29.73,NNW,340,3.0,9.0,92,0.00,,---,0.71,VWS V14.01,2013-04-19 13:32:00,
2013-04-19 09:33:00,41.0,38.9,29.73,NNW,340,3.0,9.0,92,0.00,,---,0.71,VWS V14.01,2013-04-19 13:33:00,
2013-04-19 09:34:00,41.0,38.9,29.73,West,273,5.0,8.0,92,0.00,,---,0.71,VWS V14.01,2013-04-19 13:34:00,
2013-04-19 09:35:00,41.0,38.6,29.73,WNW,288,1.0,6.0,91,0.00,,---,0.71,VWS V14.01,2013-04-19 13:35:00,
2013-04-19 09:36:00,41.0,38.6,29.73,West,281,3.0,4.0,91,0.00,,---,0.71,VWS V14.01,2013-04-19 13:36:00,
2013-04-19 09:37:00,40.9,38.5,29.73,West,275,7.0,9.0,91,0.00,,---,0.71,VWS V14.01,2013-04-19 13:37:00,
2013-04-19 09:38:00,40.9,38.5,29.73,West,275,7.0,9.0,91,0.00,,---,0.71,VWS V14.01,2013-04-19 13:38:00,
2013-04-19 09:39:00,40.9,38.2,29.74,West,265,4.0,8.0,90,0.00,,---,0.71,VWS V14.01,2013-04-19 13:39:00,
2013-04-19 09:40:00,40.8,38.1,29.74,West,271,5.0,7.0,90,0.00,,---,0.71,VWS V14.01,2013-04-19 13:40:00,
2013-04-19 09:41:00,40.8,38.1,29.74,WNW,301,4.0,6.0,90,0.00,,---,0.71,VWS V14.01,2013-04-19 13:41:00,
2013-04-19 09:42:00,40.7,38.0,29.74,West,274,6.0,8.0,90,0.00,,---,0.71,VWS V14.01,2013-04-19 13:42:00,
2013-04-19 09:43:00,40.7,38.0,29.74,West,274,6.0,8.0,90,0.00,,---,0.71,VWS V14.01,2013-04-19 13:43:00,
2013-04-19 09:44:00,40.7,38.0,29.74,WNW,298,3.0,13.0,90,0.00,,---,0.71,VWS V14.01,2013-04-19 13:44:00,
2013-04-19 09:45:00,40.7,38.0,29.75,West,269,3.0,6.0,90,0.00,,---,0.71,VWS V14.01,2013-04-19 13:45:00,
2013-04-19 09:46:00,40.7,38.0,29.75,WNW,284,4.0,4.0,90,0.00,,---,0.71,VWS V14.01,2013-04-19 13:46:00,
2013-04-19 09:47:00,40.6,37.9,29.75,SSW,195,5.0,12.0,90,0.00,,---,0.71,VWS V14.01,2013-04-19 13:47:00,
2013-04-19 09:48:00,40.6,37.9,29.75,SSW,195,5.0,12.0,90,0.00,,---,0.71,VWS V14.01,2013-04-19 13:48:00,
2013-04-19 09:49:00,40.5,37.5,29.75,WSW,246,6.0,10.0,89,0.00,,---,0.71,VWS V14.01,2013-04-19 13:49:00,
2013-04-19 09:50:00,40.5,37.5,29.75,WNW,289,6.0,8.0,89,0.00,,---,0.71,VWS V14.01,2013-04-19 13:50:00,
2013-04-19 09:51:00,40.4,37.1,29.75,West,265,5.0,14.0,88,0.00,,---,0.71,VWS V14.01,2013-04-19 13:51:00,
2013-04-19 09:52:00,40.3,37.0,29.76,WSW,257,4.0,15.0,88,0.00,,---,0.71,VWS V14.01,2013-04-19 13:52:00,
2013-04-19 09:53:00,40.3,37.0,29.76,WSW,257,4.0,15.0,88,0.00,,---,0.71,VWS V14.01,2013-04-19 13:53:00,
2013-04-19 09:54:00,40.2,36.7,29.75,NNW,347,6.0,7.0,87,0.00,,---,0.71,VWS V14.01,2013-04-19 13:54:00,
2013-04-19 09:55:00,40.2,36.7,29.75,West,261,4.0,13.0,87,0.00,,---,0.71,VWS V14.01,2013-04-19 13:55:00,
2013-04-19 09:56:00,40.1,36.5,29.76,WNW,298,3.0,11.0,87,0.00,,---,0.71,VWS V14.01,2013-04-19 13:56:00,
2013-04-19 09:57:00,40.1,36.5,29.76,SW,236,5.0,7.0,87,0.00,,---,0.71,VWS V14.01,2013-04-19 13:57:00,
2013-04-19 09:58:00,40.1,36.5,29.76,SW,236,5.0,7.0,87,0.00,,---,0.71,VWS V14.01,2013-04-19 13:58:00,
2013-04-19 09:59:00,40.0,36.5,29.76,WSW,248,8.0,17.0,87,0.00,,---,0.71,VWS V14.01,2013-04-19 13:59:00,
2013-04-19 10:00:00,40.0,36.2,29.76,WNW,299,5.0,11.0,86,0.00,,---,0.71,VWS V14.01,2013-04-19 14:00:00,
2013-04-19 10:01:00,40.0,36.2,29.76,West,264,4.0,10.0,86,0.00,,---,0.71,VWS V14.01,2013-04-19 14:01:00,
2013-04-19 10:02:00,40.0,35.9,29.76,SW,229,4.0,11.0,85,0.00,,---,0.71,VWS V14.01,2013-04-19 14:02:00,
2013-04-19 10:03:00,40.0,35.9,29.76,SW,229,4.0,11.0,85,0.00,,---,0.71,VWS V14.01,2013-04-19 14:03:00,
2013-04-19 10:04:00,39.9,36.1,29.76,WNW,286,4.0,8.0,86,0.00,,---,0.71,VWS V14.01,2013-04-19 14:04:00,
2013-04-19 10:05:00,39.9,36.1,29.76,WNW,296,5.0,7.0,86,0.00,,---,0.71,VWS V14.01,2013-04-19 14:05:00,
2013-04-19 10:06:00,39.9,36.1,29.76,NW,315,4.0,13.0,86,0.00,,---,0.71,VWS V14.01,2013-04-19 14:06:00,
2013-04-19 10:07:00,39.8,36.0,29.76,West,271,5.0,12.0,86,0.00,,---,0.71,VWS V14.01,2013-04-19 14:07:00,
2013-04-19 10:08:00,39.8,36.0,29.76,West,271,5.0,12.0,86,0.00,,---,0.71,VWS V14.01,2013-04-19 14:08:00,
2013-04-19 10:09:00,39.8,35.7,29.77,WNW,300,2.0,12.0,85,0.00,,---,0.71,VWS V14.01,2013-04-19 14:09:00,
2013-04-19 10:10:00,39.8,35.7,29.76,WNW,296,8.0,12.0,85,0.00,,---,0.71,VWS V14.01,2013-04-19 14:10:00,
2013-04-19 10:11:00,39.7,35.3,29.77,WNW,290,7.0,8.0,84,0.00,,---,0.71,VWS V14.01,2013-04-19 14:11:00,
2013-04-19 10:12:00,39.8,35.4,29.77,West,273,4.0,6.0,84,0.00,,---,0.71,VWS V14.01,2013-04-19 14:12:00,
2013-04-19 10:13:00,39.8,35.4,29.77,West,273,4.0,6.0,84,0.00,,---,0.71,VWS V14.01,2013-04-19 14:13:00,
2013-04-19 10:14:00,39.8,35.7,29.77,West,263,2.0,5.0,85,0.00,,---,0.71,VWS V14.01,2013-04-19 14:14:00,
2013-04-19 10:15:00,39.8,35.7,29.77,West,266,7.0,10.0,85,0.00,,---,0.71,VWS V14.01,2013-04-19 14:15:00,
2013-04-19 10:16:00,39.8,35.4,29.77,WNW,286,5.0,10.0,84,0.00,,---,0.71,VWS V14.01,2013-04-19 14:16:00,
2013-04-19 10:17:00,39.9,35.5,29.77,WSW,246,4.0,5.0,84,0.00,,---,0.71,VWS V14.01,2013-04-19 14:17:00,
2013-04-19 10:18:00,39.9,35.5,29.77,WSW,246,4.0,5.0,84,0.00,,---,0.71,VWS V14.01,2013-04-19 14:18:00,
2013-04-19 10:19:00,39.9,35.5,29.77,WNW,292,5.0,8.0,84,0.00,,---,0.71,VWS V14.01,2013-04-19 14:19:00,
2013-04-19 10:20:00,39.9,35.5,29.78,WNW,300,7.0,9.0,84,0.00,,---,0.71,VWS V14.01,2013-04-19 14:20:00,
2013-04-19 10:21:00,39.9,35.2,29.77,NW,311,0.0,7.0,83,0.00,,---,0.71,VWS V14.01,2013-04-19 14:21:00,
2013-04-19 10:22:00,40.0,35.6,29.78,West,273,1.0,6.0,84,0.00,,---,0.71,VWS V14.01,2013-04-19 14:22:00,
2013-04-19 10:23:00,40.0,35.6,29.78,West,273,1.0,6.0,84,0.00,,---,0.71,VWS V14.01,2013-04-19 14:23:00,
2013-04-19 10:24:00,40.0,35.6,29.78,NW,308,2.0,3.0,84,0.00,,---,0.71,VWS V14.01,2013-04-19 14:24:00,
2013-04-19 10:25:00,40.1,35.7,29.78,WNW,300,7.0,7.0,84,0.00,,---,0.71,VWS V14.01,2013-04-19 14:25:00,
2013-04-19 10:26:00,40.1,35.7,29.78,WSW,255,2.0,7.0,84,0.00,,---,0.71,VWS V14.01,2013-04-19 14:26:00,
2013-04-19 10:27:00,40.1,35.4,29.78,West,261,4.0,8.0,83,0.00,,---,0.71,VWS V14.01,2013-04-19 14:27:00,
2013-04-19 10:28:00,40.1,35.4,29.78,West,261,4.0,8.0,83,0.00,,---,0.71,VWS V14.01,2013-04-19 14:28:00,
2013-04-19 10:29:00,40.1,35.4,29.77,West,267,1.0,6.0,83,0.00,,---,0.71,VWS V14.01,2013-04-19 14:29:00,
2013-04-19 10:30:00,40.1,35.4,29.78,West,262,6.0,6.0,83,0.00,,---,0.71,VWS V14.01,2013-04-19 14:30:00,
2013-04-19 10:31:00,40.1,35.4,29.78,WSW,253,5.0,7.0,83,0.00,,---,0.71,VWS V14.01,2013-04-19 14:31:00,
2013-04-19 10:32:00,40.1,35.1,29.78,WNW,298,3.0,7.0,82,0.00,,---,0.71,VWS V14.01,2013-04-19 14:32:00,
2013-04-19 10:33:00,40.1,35.1,29.78,WNW,298,3.0,7.0,82,0.00,,---,0.71,VWS V14.01,2013-04-19 14:33:00,
2013-04-19 10:34:00,40.1,35.4,29.78,WSW,251,5.0,7.0,83,0.00,,---,0.71,VWS V14.01,2013-04-19 14:34:00,
2013-04-19 10:35:00,40.2,35.2,29.78,WNW,287,4.0,9.0,82,0.00,,---,0.71,VWS V14.01,2013-04-19 14:35:00,
2013-04-19 10:36:00,40.2,35.2,29.78,West,267,3.0,5.0,82,0.00,,---,0.71,VWS V14.01,2013-04-19 14:36:00,
2013-04-19 10:37:00,40.2,35.2,29.78,WSW,251,5.0,9.0,82,0.00,,---,0.71,VWS V14.01,2013-04-19 14:37:00,
2013-04-19 10:38:00,40.3,35.6,29.78,NW,311,3.0,6.0,83,0.00,,---,0.71,VWS V14.01,2013-04-19 14:38:00,
2013-04-19 10:39:00,40.3,35.6,29.78,NW,311,3.0,6.0,83,0.00,,---,0.71,VWS V14.01,2013-04-19 14:39:00,
2013-04-19 10:40:00,40.3,35.6,29.79,WSW,244,3.0,3.0,83,0.00,,---,0.71,VWS V14.01,2013-04-19 14:40:00,
2013-04-19 10:41:00,40.4,36.0,29.78,West,281,4.0,5.0,84,0.00,,---,0.71,VWS V14.01,2013-04-19 14:41:00,
2013-04-19 10:42:00,40.4,35.7,29.78,West,279,5.0,5.0,83,0.00,,---,0.71,VWS V14.01,2013-04-19 14:42:00,
2013-04-19 10:43:00,40.5,35.8,29.78,NNW,331,4.0,9.0,83,0.00,,---,0.71,VWS V14.01,2013-04-19 14:43:00,
2013-04-19 10:44:00,40.5,35.8,29.78,NNW,331,4.0,9.0,83,0.00,,---,0.71,VWS V14.01,2013-04-19 14:44:00,
2013-04-19 10:45:00,40.5,35.5,29.78,WNW,283,3.0,5.0,82,0.00,,---,0.71,VWS V14.01,2013-04-19 14:45:00,
2013-04-19 10:46:00,40.6,35.8,29.78,NW,307,4.0,7.0,83,0.00,,---,0.71,VWS V14.01,2013-04-19 14:46:00,
2013-04-19 10:47:00,40.6,35.8,29.78,WNW,284,1.0,4.0,83,0.00,,---,0.71,VWS V14.01,2013-04-19 14:47:00,
2013-04-19 10:48:00,40.7,36.0,29.78,WSW,248,6.0,7.0,83,0.00,,---,0.71,VWS V14.01,2013-04-19 14:48:00,
2013-04-19 10:49:00,40.7,36.0,29.78,WSW,248,6.0,7.0,83,0.00,,---,0.71,VWS V14.01,2013-04-19 14:49:00,
2013-04-19 10:50:00,40.7,35.6,29.78,WNW,292,6.0,11.0,82,0.00,,---,0.71,VWS V14.01,2013-04-19 14:50:00,
2013-04-19 10:51:00,40.7,35.6,29.78,West,275,6.0,7.0,82,0.00,,---,0.71,VWS V14.01,2013-04-19 14:51:00,
2013-04-19 10:52:00,40.8,35.7,29.78,SW,218,6.0,6.0,82,0.00,,---,0.71,VWS V14.01,2013-04-19 14:52:00,
2013-04-19 10:53:00,40.8,36.0,29.78,West,279,6.0,8.0,83,0.00,,---,0.71,VWS V14.01,2013-04-19 14:53:00,
2013-04-19 10:54:00,40.8,36.0,29.78,West,279,6.0,8.0,83,0.00,,---,0.71,VWS V14.01,2013-04-19 14:54:00,
2013-04-19 10:55:00,40.8,35.7,29.78,West,273,2.0,6.0,82,0.00,,---,0.71,VWS V14.01,2013-04-19 14:55:00,
2013-04-19 10:56:00,40.8,35.7,29.78,WSW,255,1.0,5.0,82,0.00,,---,0.71,VWS V14.01,2013-04-19 14:56:00,
2013-04-19 10:57:00,40.9,35.8,29.78,NW,304,0.0,5.0,82,0.00,,---,0.71,VWS V14.01,2013-04-19 14:57:00,
2013-04-19 10:58:00,41.0,36.5,29.78,West,268,1.0,4.0,84,0.00,,---,0.71,VWS V14.01,2013-04-19 14:58:00,
2013-04-19 10:59:00,41.0,36.5,29.78,West,268,1.0,4.0,84,0.00,,---,0.71,VWS V14.01,2013-04-19 14:59:00,
2013-04-19 11:00:00,41.1,36.6,29.78,West,268,0.0,2.0,84,0.00,,---,0.71,VWS V14.01,2013-04-19 15:00:00,
2013-04-19 11:01:00,41.2,37.0,29.78,SSW,212,3.0,6.0,85,0.00,,---,0.71,VWS V14.01,2013-04-19 15:01:00,
2013-04-19 11:02:00,41.2,36.7,29.78,WSW,253,3.0,9.0,84,0.00,,---,0.71,VWS V14.01,2013-04-19 15:02:00,
2013-04-19 11:03:00,41.3,36.5,29.79,WNW,282,2.0,7.0,83,0.00,,---,0.71,VWS V14.01,2013-04-19 15:03:00,
2013-04-19 11:04:00,41.3,36.5,29.79,WNW,282,2.0,7.0,83,0.00,,---,0.71,VWS V14.01,2013-04-19 15:04:00,
2013-04-19 11:05:00,41.3,36.5,29.78,WNW,284,3.0,3.0,83,0.00,,---,0.71,VWS V14.01,2013-04-19 15:05:00,
2013-04-19 11:06:00,41.3,36.8,29.78,West,266,4.0,5.0,84,0.00,,---,0.71,VWS V14.01,2013-04-19 15:06:00,
2013-04-19 11:07:00,41.4,36.9,29.78,West,279,5.0,7.0,84,0.00,,---,0.71,VWS V14.01,2013-04-19 15:07:00,
2013-04-19 11:08:00,41.4,36.9,29.78,SW,236,7.0,11.0,84,0.00,,---,0.71,VWS V14.01,2013-04-19 15:08:00,
2013-04-19 11:09:00,41.4,36.9,29.78,SW,236,7.0,11.0,84,0.00,,---,0.71,VWS V14.01,2013-04-19 15:09:00,
2013-04-19 11:10:00,41.3,36.5,29.78,WNW,298,7.0,10.0,83,0.00,,---,0.71,VWS V14.01,2013-04-19 15:10:00,
2013-04-19 11:11:00,41.3,36.5,29.79,NW,311,7.0,10.0,83,0.00,,---,0.71,VWS V14.01,2013-04-19 15:11:00,
2013-04-19 11:12:00,41.2,36.4,29.78,WSW,252,3.0,7.0,83,0.00,,---,0.71,VWS V14.01,2013-04-19 15:12:00,
2013-04-19 11:13:00,41.2,36.7,29.79,WSW,252,9.0,9.0,84,0.00,,---,0.71,VWS V14.01,2013-04-19 15:13:00,
2013-04-19 11:14:00,41.2,36.7,29.79,WSW,252,9.0,9.0,84,0.00,,---,0.71,VWS V14.01,2013-04-19 15:14:00,
2013-04-19 11:15:00,41.2,36.7,29.79,NW,306,4.0,9.0,84,0.00,,---,0.71,VWS V14.01,2013-04-19 15:15:00,
2013-04-19 11:16:00,41.1,36.6,29.79,WNW,292,4.0,6.0,84,0.00,,---,0.71,VWS V14.01,2013-04-19 15:16:00,
2013-04-19 11:17:00,41.1,36.9,29.79,WNW,288,8.0,11.0,85,0.00,,---,0.71,VWS V14.01,2013-04-19 15:17:00,
2013-04-19 11:18:00,40.9,36.8,29.79,WSW,247,6.0,9.0,85,0.00,,---,0.71,VWS V14.01,2013-04-19 15:18:00,
2013-04-19 11:19:00,40.9,36.8,29.79,WSW,247,6.0,9.0,85,0.00,,---,0.71,VWS V14.01,2013-04-19 15:19:00,
2013-04-19 11:20:00,40.7,36.5,29.79,SW,227,4.0,9.0,85,0.00,,---,0.71,VWS V14.01,2013-04-19 15:20:00,
2013-04-19 11:21:00,40.7,36.8,29.79,WNW,285,0.0,6.0,86,0.00,,---,0.71,VWS V14.01,2013-04-19 15:21:00,
2013-04-19 11:22:00,40.7,37.1,29.79,West,272,0.0,2.0,87,0.00,,---,0.71,VWS V14.01,2013-04-19 15:22:00,
2013-04-19 11:23:00,40.8,37.5,29.80,West,265,5.0,15.0,88,0.00,,---,0.71,VWS V14.01,2013-04-19 15:23:00,
2013-04-19 11:24:00,40.8,37.5,29.80,West,265,5.0,15.0,88,0.00,,---,0.71,VWS V14.01,2013-04-19 15:24:00,
2013-04-19 11:25:00,40.8,37.2,29.79,West,263,9.0,9.0,87,0.00,,---,0.71,VWS V14.01,2013-04-19 15:25:00,
2013-04-19 11:26:00,40.8,36.9,29.79,WSW,252,8.0,10.0,86,0.00,,---,0.71,VWS V14.01,2013-04-19 15:26:00,
2013-04-19 11:27:00,40.9,37.0,29.79,West,272,8.0,9.0,86,0.00,,---,0.71,VWS V14.01,2013-04-19 15:27:00,
2013-04-19 11:28:00,41.0,37.1,29.79,WNW,288,3.0,10.0,86,0.00,,---,0.71,VWS V14.01,2013-04-19 15:28:00,
2013-04-19 11:29:00,41.0,37.1,29.79,WNW,288,3.0,10.0,86,0.00,,---,0.71,VWS V14.01,2013-04-19 15:29:00,
2013-04-19 11:30:00,41.1,37.2,29.79,SSW,213,6.0,6.0,86,0.00,,---,0.71,VWS V14.01,2013-04-19 15:30:00,
2013-04-19 11:31:00,41.3,37.7,29.79,SW,234,4.0,8.0,87,0.00,,---,0.71,VWS V14.01,2013-04-19 15:31:00,
2013-04-19 11:32:00,41.5,37.9,29.79,SW,232,2.0,6.0,87,0.00,,---,0.71,VWS V14.01,2013-04-19 15:32:00,
2013-04-19 11:33:00,41.9,38.3,29.79,West,279,4.0,10.0,87,0.00,,---,0.71,VWS V14.01,2013-04-19 15:33:00,
2013-04-19 11:34:00,41.9,38.3,29.79,West,279,4.0,10.0,87,0.00,,---,0.71,VWS V14.01,2013-04-19 15:34:00,
2013-04-19 11:35:00,42.1,38.5,29.79,WSW,240,5.0,7.0,87,0.00,,---,0.71,VWS V14.01,2013-04-19 15:35:00,
2013-04-19 11:36:00,42.2,38.0,29.79,West,265,6.0,8.0,85,0.00,,---,0.71,VWS V14.01,2013-04-19 15:36:00,
2013-04-19 11:37:00,42.4,38.2,29.79,SW,216,2.0,6.0,85,0.00,,---,0.71,VWS V14.01,2013-04-19 15:37:00,
2013-04-19 11:38:00,42.6,38.1,29.79,West,264,1.0,5.0,84,0.00,,---,0.71,VWS V14.01,2013-04-19 15:38:00,
2013-04-19 11:39:00,42.6,38.1,29.79,West,264,1.0,5.0,84,0.00,,---,0.71,VWS V14.01,2013-04-19 15:39:00,
2013-04-19 11:40:00,42.7,37.9,29.79,NW,314,3.0,6.0,83,0.00,,---,0.71,VWS V14.01,2013-04-19 15:40:00,
2013-04-19 11:41:00,42.7,37.9,29.79,WNW,284,7.0,10.0,83,0.00,,---,0.71,VWS V14.01,2013-04-19 15:41:00,
2013-04-19 11:42:00,42.7,37.0,29.80,NNW,336,7.0,14.0,80,0.00,,---,0.71,VWS V14.01,2013-04-19 15:42:00,
2013-04-19 11:43:00,42.6,36.2,29.80,WSW,238,2.0,14.0,78,0.00,,---,0.71,VWS V14.01,2013-04-19 15:43:00,
2013-04-19 11:44:00,42.6,36.2,29.80,WSW,238,2.0,14.0,78,0.00,,---,0.71,VWS V14.01,2013-04-19 15:44:00,
2013-04-19 11:45:00,42.5,36.1,29.80,WNW,286,2.0,8.0,78,0.00,,---,0.71,VWS V14.01,2013-04-19 15:45:00,
2013-04-19 11:46:00,42.5,36.1,29.80,WSW,253,6.0,12.0,78,0.00,,---,0.71,VWS V14.01,2013-04-19 15:46:00,
2013-04-19 11:47:00,42.4,36.0,29.80,WSW,237,5.0,16.0,78,0.00,,---,0.71,VWS V14.01,2013-04-19 15:47:00,
2013-04-19 11:48:00,42.4,35.4,29.80,WSW,253,13.0,18.0,76,0.00,,---,0.71,VWS V14.01,2013-04-19 15:48:00,
2013-04-19 11:49:00,42.4,35.4,29.80,WSW,253,13.0,18.0,76,0.00,,---,0.71,VWS V14.01,2013-04-19 15:49:00,
2013-04-19 11:50:00,42.3,35.0,29.80,WSW,237,6.0,13.0,75,0.00,,---,0.71,VWS V14.01,2013-04-19 15:50:00,
2013-04-19 11:51:00,42.2,35.2,29.80,West,262,10.0,13.0,76,0.00,,---,0.71,VWS V14.01,2013-04-19 15:51:00,
2013-04-19 11:52:00,42.2,34.9,29.80,WNW,288,9.0,12.0,75,0.00,,---,0.71,VWS V14.01,2013-04-19 15:52:00,
2013-04-19 11:53:00,42.2,34.9,29.80,West,270,6.0,13.0,75,0.00,,---,0.71,VWS V14.01,2013-04-19 15:53:00,
2013-04-19 11:54:00,42.2,34.9,29.80,West,270,6.0,13.0,75,0.00,,---,0.71,VWS V14.01,2013-04-19 15:54:00,
2013-04-19 11:55:00,42.3,35.0,29.80,West,280,8.0,12.0,75,0.00,,---,0.71,VWS V14.01,2013-04-19 15:55:00,
2013-04-19 11:56:00,42.4,35.4,29.80,WSW,248,5.0,11.0,76,0.00,,---,0.71,VWS V14.01,2013-04-19 15:56:00,
2013-04-19 11:57:00,42.4,35.0,29.81,WSW,252,4.0,15.0,75,0.00,,---,0.71,VWS V14.01,2013-04-19 15:57:00,
2013-04-19 11:58:00,42.4,35.0,29.81,WSW,254,3.0,9.0,75,0.00,,---,0.71,VWS V14.01,2013-04-19 15:58:00,
2013-04-19 11:59:00,42.4,35.0,29.81,WSW,254,3.0,9.0,75,0.00,,---,0.71,VWS V14.01,2013-04-19 15:59:00,
2013-04-19 12:00:00,42.5,35.2,29.81,WSW,251,5.0,5.0,75,0.00,,---,0.71,VWS V14.01,2013-04-19 16:00:00,
2013-04-19 12:01:00,42.5,35.2,29.80,West,261,4.0,7.0,75,0.00,,---,0.71,VWS V14.01,2013-04-19 16:01:00,
2013-04-19 12:02:00,42.5,34.8,29.80,West,269,6.0,10.0,74,0.00,,---,0.71,VWS V14.01,2013-04-19 16:02:00,
2013-04-19 12:03:00,42.4,34.0,29.80,WSW,237,12.0,18.0,72,0.00,,---,0.71,VWS V14.01,2013-04-19 16:03:00,
2013-04-19 12:04:00,42.4,34.0,29.80,WSW,237,12.0,18.0,72,0.00,,---,0.71,VWS V14.01,2013-04-19 16:04:00,
2013-04-19 12:05:00,42.3,33.9,29.80,West,273,4.0,12.0,72,0.00,,---,0.71,VWS V14.01,2013-04-19 16:05:00,
2013-04-19 12:06:00,42.3,34.3,29.80,West,273,7.0,13.0,73,0.00,,---,0.71,VWS V14.01,2013-04-19 16:06:00,
2013-04-19 12:07:00,42.3,33.9,29.81,WSW,242,13.0,13.0,72,0.00,,---,0.71,VWS V14.01,2013-04-19 16:07:00,
2013-04-19 12:08:00,42.3,34.3,29.80,WNW,293,5.0,9.0,73,0.00,,---,0.71,VWS V14.01,2013-04-19 16:08:00,
2013-04-19 12:09:00,42.3,34.3,29.80,WNW,293,5.0,9.0,73,0.00,,---,0.71,VWS V14.01,2013-04-19 16:09:00,
2013-04-19 12:10:00,42.2,34.2,29.80,West,260,5.0,7.0,73,0.00,,---,0.71,VWS V14.01,2013-04-19 16:10:00,
2013-04-19 12:11:00,42.3,33.9,29.80,West,269,3.0,12.0,72,0.00,,---,0.71,VWS V14.01,2013-04-19 16:11:00,
2013-04-19 12:12:00,42.2,34.2,29.80,NW,313,9.0,9.0,73,0.00,,---,0.71,VWS V14.01,2013-04-19 16:12:00,
2013-04-19 12:13:00,42.2,34.2,29.79,WSW,255,17.0,17.0,73,0.00,,---,0.71,VWS V14.01,2013-04-19 16:13:00,
2013-04-19 12:14:00,42.2,34.2,29.79,WSW,255,17.0,17.0,73,0.00,,---,0.71,VWS V14.01,2013-04-19 16:14:00,
2013-04-19 12:15:00,42.1,33.4,29.80,SW,227,6.0,17.0,71,0.00,,---,0.71,VWS V14.01,2013-04-19 16:15:00,
2013-04-19 12:16:00,42.0,33.3,29.80,West,265,7.0,10.0,71,0.00,,---,0.71,VWS V14.01,2013-04-19 16:16:00,
2013-04-19 12:17:00,42.0,33.3,29.80,West,263,6.0,10.0,71,0.00,,---,0.71,VWS V14.01,2013-04-19 16:17:00,
2013-04-19 12:18:00,42.0,34.0,29.80,SW,235,6.0,9.0,73,0.00,,---,0.71,VWS V14.01,2013-04-19 16:18:00,
2013-04-19 12:19:00,42.0,34.0,29.80,SW,235,6.0,9.0,73,0.00,,---,0.71,VWS V14.01,2013-04-19 16:19:00,
2013-04-19 12:20:00,42.0,33.6,29.80,West,269,9.0,10.0,72,0.00,,---,0.71,VWS V14.01,2013-04-19 16:20:00,
2013-04-19 12:21:00,42.0,33.3,29.80,SW,233,6.0,11.0,71,0.00,,---,0.71,VWS V14.01,2013-04-19 16:21:00,
2013-04-19 12:22:00,42.0,33.3,29.80,WSW,240,7.0,10.0,71,0.00,,---,0.71,VWS V14.01,2013-04-19 16:22:00,
2013-04-19 12:23:00,42.0,33.3,29.80,West,275,6.0,13.0,71,0.00,,---,0.71,VWS V14.01,2013-04-19 16:23:00,
2013-04-19 12:24:00,42.0,33.3,29.80,West,275,6.0,13.0,71,0.00,,---,0.71,VWS V14.01,2013-04-19 16:24:00,
2013-04-19 12:25:00,42.0,33.3,29.80,West,276,5.0,9.0,71,0.00,,---,0.71,VWS V14.01,2013-04-19 16:25:00,
2013-04-19 12:26:00,42.0,33.3,29.80,WSW,253,3.0,10.0,71,0.00,,---,0.71,VWS V14.01,2013-04-19 16:26:00,
2013-04-19 12:27:00,42.0,33.3,29.80,WNW,295,9.0,11.0,71,0.00,,---,0.71,VWS V14.01,2013-04-19 16:27:00,
2013-04-19 12:28:00,42.0,33.6,29.81,WNW,296,6.0,10.0,72,0.00,,---,0.71,VWS V14.01,2013-04-19 16:28:00,
2013-04-19 12:29:00,42.0,33.6,29.81,WNW,296,6.0,10.0,72,0.00,,---,0.71,VWS V14.01,2013-04-19 16:29:00,
2013-04-19 12:30:00,42.0,33.6,29.80,NW,319,6.0,10.0,72,0.00,,---,0.71,VWS V14.01,2013-04-19 16:30:00,
2013-04-19 12:31:00,42.0,33.6,29.80,NW,317,5.0,11.0,72,0.00,,---,0.71,VWS V14.01,2013-04-19 16:31:00,
2013-04-19 12:32:00,42.1,33.7,29.80,SW,225,3.0,7.0,72,0.00,,---,0.71,VWS V14.01,2013-04-19 16:32:00,
2013-04-19 12:33:00,42.2,34.2,29.80,SW,218,7.0,8.0,73,0.00,,---,0.71,VWS V14.01,2013-04-19 16:33:00,
2013-04-19 12:34:00,42.2,34.2,29.80,SW,218,7.0,8.0,73,0.00,,---,0.71,VWS V14.01,2013-04-19 16:34:00,
2013-04-19 12:35:00,42.2,33.5,29.80,WSW,247,4.0,10.0,71,0.00,,---,0.71,VWS V14.01,2013-04-19 16:35:00,
2013-04-19 12:36:00,42.2,33.8,29.80,West,262,9.0,9.0,72,0.00,,---,0.71,VWS V14.01,2013-04-19 16:36:00,
2013-04-19 12:37:00,42.3,33.9,29.80,WNW,289,5.0,11.0,72,0.00,,---,0.71,VWS V14.01,2013-04-19 16:37:00,
2013-04-19 12:38:00,42.4,34.0,29.81,WNW,296,12.0,13.0,72,0.00,,---,0.71,VWS V14.01,2013-04-19 16:38:00,
2013-04-19 12:39:00,42.4,34.0,29.81,WNW,296,12.0,13.0,72,0.00,,---,0.71,VWS V14.01,2013-04-19 16:39:00,
2013-04-19 12:40:00,42.5,34.1,29.80,West,260,6.0,15.0,72,0.00,,---,0.71,VWS V14.01,2013-04-19 16:40:00,
2013-04-19 12:41:00,42.5,33.4,29.80,SW,234,5.0,11.0,70,0.00,,---,0.71,VWS V14.01,2013-04-19 16:41:00,
2013-04-19 12:42:00,42.6,33.9,29.80,WSW,256,8.0,10.0,71,0.00,,---,0.71,VWS V14.01,2013-04-19 16:42:00,
2013-04-19 12:43:00,42.6,33.5,29.80,WNW,292,4.0,7.0,70,0.00,,---,0.71,VWS V14.01,2013-04-19 16:43:00,
2013-04-19 12:44:00,42.6,33.5,29.80,WNW,292,4.0,7.0,70,0.00,,---,0.71,VWS V14.01,2013-04-19 16:44:00,
2013-04-19 12:45:00,42.6,33.9,29.81,West,259,6.0,8.0,71,0.00,,---,0.71,VWS V14.01,2013-04-19 16:45:00,
2013-04-19 12:46:00,42.5,33.8,29.81,West,276,11.0,12.0,71,0.00,,---,0.71,VWS V14.01,2013-04-19 16:46:00,
2013-04-19 12:47:00,42.4,33.0,29.80,SW,223,8.0,12.0,69,0.00,,---,0.71,VWS V14.01,2013-04-19 16:47:00,
2013-04-19 12:48:00,42.2,33.1,29.80,NW,314,6.0,18.0,70,0.00,,---,0.71,VWS V14.01,2013-04-19 16:48:00,
2013-04-19 12:49:00,42.2,33.1,29.80,NW,314,6.0,18.0,70,0.00,,---,0.71,VWS V14.01,2013-04-19 16:49:00,
2013-04-19 12:50:00,42.1,33.0,29.80,WSW,248,6.0,14.0,70,0.00,,---,0.71,VWS V14.01,2013-04-19 16:50:00,
2013-04-19 12:51:00,42.0,33.3,29.80,WNW,288,10.0,10.0,71,0.00,,---,0.71,VWS V14.01,2013-04-19 16:51:00,
2013-04-19 12:52:00,42.0,33.3,29.80,WSW,252,5.0,10.0,71,0.00,,---,0.71,VWS V14.01,2013-04-19 16:52:00,
2013-04-19 12:53:00,42.0,33.6,29.81,WNW,286,5.0,5.0,72,0.00,,---,0.71,VWS V14.01,2013-04-19 16:53:00,
2013-04-19 12:54:00,42.0,33.6,29.81,WNW,292,9.0,15.0,72,0.00,,---,0.71,VWS V14.01,2013-04-19 16:54:00,
2013-04-19 12:55:00,42.0,33.6,29.81,WNW,292,9.0,15.0,72,0.00,,---,0.71,VWS V14.01,2013-04-19 16:55:00,
2013-04-19 12:56:00,41.9,33.2,29.81,WSW,239,5.0,12.0,71,0.00,,---,0.71,VWS V14.01,2013-04-19 16:56:00,
2013-04-19 12:57:00,41.9,33.2,29.80,WNW,294,5.0,7.0,71,0.00,,---,0.71,VWS V14.01,2013-04-19 16:57:00,
2013-04-19 12:58:00,41.9,33.5,29.80,WNW,288,2.0,9.0,72,0.00,,---,0.71,VWS V14.01,2013-04-19 16:58:00,
2013-04-19 12:59:00,42.0,33.6,29.81,WSW,240,5.0,9.0,72,0.00,,---,0.71,VWS V14.01,2013-04-19 16:59:00,
2013-04-19 13:00:00,42.0,33.6,29.81,WSW,240,5.0,9.0,72,0.00,,---,0.71,VWS V14.01,2013-04-19 17:00:00,
2013-04-19 13:01:00,42.0,33.6,29.80,WNW,302,0.0,7.0,72,0.00,,---,0.71,VWS V14.01,2013-04-19 17:01:00,
2013-04-19 13:02:00,42.1,34.1,29.80,WSW,254,6.0,6.0,73,0.00,,---,0.71,VWS V14.01,2013-04-19 17:02:00,
2013-04-19 13:03:00,42.2,34.2,29.80,WSW,246,3.0,6.0,73,0.00,,---,0.71,VWS V14.01,2013-04-19 17:03:00,
2013-04-19 13:04:00,42.3,34.3,29.80,WNW,296,4.0,11.0,73,0.00,,---,0.71,VWS V14.01,2013-04-19 17:04:00,
2013-04-19 13:05:00,42.3,34.3,29.80,WNW,296,4.0,11.0,73,0.00,,---,0.71,VWS V14.01,2013-04-19 17:05:00,
2013-04-19 13:06:00,42.3,34.3,29.80,WNW,301,2.0,10.0,73,0.00,,---,0.71,VWS V14.01,2013-04-19 17:06:00,
2013-04-19 13:07:00,42.3,34.3,29.81,West,276,2.0,3.0,73,0.00,,---,0.71,VWS V14.01,2013-04-19 17:07:00,
2013-04-19 13:08:00,42.3,34.3,29.81,WNW,285,4.0,6.0,73,0.00,,---,0.71,VWS V14.01,2013-04-19 17:08:00,
2013-04-19 13:09:00,42.3,34.3,29.81,WNW,289,4.0,8.0,73,0.00,,---,0.71,VWS V14.01,2013-04-19 17:09:00,
2013-04-19 13:10:00,42.3,34.3,29.81,WNW,289,4.0,8.0,73,0.00,,---,0.71,VWS V14.01,2013-04-19 17:10:00,
2013-04-19 13:11:00,42.2,33.8,29.80,SW,233,9.0,16.0,72,0.00,,---,0.71,VWS V14.01,2013-04-19 17:11:00,
2013-04-19 13:12:00,42.1,33.4,29.80,WNW,286,6.0,11.0,71,0.00,,---,0.71,VWS V14.01,2013-04-19 17:12:00,
2013-04-19 13:13:00,42.0,33.6,29.80,WNW,288,9.0,9.0,72,0.00,,---,0.71,VWS V14.01,2013-04-19 17:13:00,
2013-04-19 13:14:00,41.9,33.5,29.81,West,269,6.0,6.0,72,0.00,,---,0.71,VWS V14.01,2013-04-19 17:14:00,
2013-04-19 13:15:00,41.9,33.5,29.81,West,269,6.0,6.0,72,0.00,,---,0.71,VWS V14.01,2013-04-19 17:15:00,
2013-04-19 13:16:00,41.8,33.8,29.81,WSW,243,4.0,8.0,73,0.00,,---,0.71,VWS V14.01,2013-04-19 17:16:00,
2013-04-19 13:17:00,41.9,33.9,29.81,WNW,298,2.0,5.0,73,0.00,,---,0.71,VWS V14.01,2013-04-19 17:17:00,
2013-04-19 13:18:00,41.8,34.1,29.81,WNW,302,3.0,5.0,74,0.00,,---,0.71,VWS V14.01,2013-04-19 17:18:00,
2013-04-19 13:19:00,41.9,34.2,29.81,NW,306,4.0,4.0,74,0.00,,---,0.71,VWS V14.01,2013-04-19 17:19:00,
2013-04-19 13:20:00,41.9,34.2,29.81,NW,306,4.0,4.0,74,0.00,,---,0.71,VWS V14.01,2013-04-19 17:20:00,
2013-04-19 13:21:00,41.9,34.2,29.81,WSW,254,4.0,6.0,74,0.00,,---,0.71,VWS V14.01,2013-04-19 17:21:00,
2013-04-19 13:22:00,42.0,34.3,29.81,West,269,5.0,7.0,74,0.00,,---,0.71,VWS V14.01,2013-04-19 17:22:00,
2013-04-19 13:23:00,41.9,33.9,29.81,NW,326,0.0,5.0,73,0.00,,---,0.71,VWS V14.01,2013-04-19 17:23:00,
2013-04-19 13:24:00,42.0,34.7,29.81,West,263,5.0,5.0,75,0.00,,---,0.71,VWS V14.01,2013-04-19 17:24:00,
2013-04-19 13:25:00,42.0,34.7,29.81,West,263,5.0,5.0,75,0.00,,---,0.71,VWS V14.01,2013-04-19 17:25:00,
2013-04-19 13:26:00,42.1,34.4,29.81,West,277,5.0,9.0,74,0.00,,---,0.71,VWS V14.01,2013-04-19 17:26:00,
2013-04-19 13:27:00,42.1,34.4,29.81,West,269,3.0,6.0,74,0.00,,---,0.71,VWS V14.01,2013-04-19 17:27:00,
2013-04-19 13:28:00,42.1,34.4,29.81,West,281,4.0,4.0,74,0.00,,---,0.71,VWS V14.01,2013-04-19 17:28:00,
2013-04-19 13:29:00,42.1,34.1,29.81,WNW,300,0.0,9.0,73,0.00,,---,0.71,VWS V14.01,2013-04-19 17:29:00,
2013-04-19 13:30:00,42.1,34.1,29.81,WNW,300,0.0,9.0,73,0.00,,---,0.71,VWS V14.01,2013-04-19 17:30:00,
2013-04-19 13:31:00,42.1,34.4,29.81,West,272,3.0,4.0,74,0.00,,---,0.71,VWS V14.01,2013-04-19 17:31:00,
2013-04-19 13:32:00,42.2,34.5,29.81,WSW,240,8.0,9.0,74,0.00,,---,0.71,VWS V14.01,2013-04-19 17:32:00,
2013-04-19 13:33:00,42.2,34.5,29.81,SW,233,10.0,13.0,74,0.00,,---,0.71,VWS V14.01,2013-04-19 17:33:00,
2013-04-19 13:34:00,42.2,34.2,29.81,WSW,238,4.0,6.0,73,0.00,,---,0.71,VWS V14.01,2013-04-19 17:34:00,
2013-04-19 13:35:00,42.2,34.2,29.81,WSW,238,4.0,6.0,73,0.00,,---,0.71,VWS V14.01,2013-04-19 17:35:00,
2013-04-19 13:36:00,42.3,34.3,29.82,WNW,290,4.0,9.0,73,0.00,,---,0.71,VWS V14.01,2013-04-19 17:36:00,
2013-04-19 13:37:00,42.3,34.3,29.82,NNW,348,6.0,7.0,73,0.00,,---,0.71,VWS V14.01,2013-04-19 17:37:00,
2013-04-19 13:38:00,42.3,34.3,29.82,SW,220,8.0,10.0,73,0.00,,---,0.71,VWS V14.01,2013-04-19 17:38:00,
2013-04-19 13:39:00,42.2,33.8,29.82,SW,228,5.0,10.0,72,0.00,,---,0.71,VWS V14.01,2013-04-19 17:39:00,
2013-04-19 13:40:00,42.2,33.8,29.82,SW,228,5.0,10.0,72,0.00,,---,0.71,VWS V14.01,2013-04-19 17:40:00,
2013-04-19 13:41:00,42.2,34.2,29.82,West,273,5.0,14.0,73,0.00,,---,0.71,VWS V14.01,2013-04-19 17:41:00,
2013-04-19 13:42:00,42.1,34.1,29.82,WSW,250,9.0,9.0,73,0.00,,---,0.71,VWS V14.01,2013-04-19 17:42:00,
2013-04-19 13:43:00,42.1,33.7,29.82,WSW,248,7.0,10.0,72,0.00,,---,0.71,VWS V14.01,2013-04-19 17:43:00,
2013-04-19 13:44:00,42.1,34.1,29.82,WSW,241,8.0,8.0,73,0.00,,---,0.71,VWS V14.01,2013-04-19 17:44:00,
2013-04-19 13:45:00,42.1,34.1,29.82,WSW,241,8.0,8.0,73,0.00,,---,0.71,VWS V14.01,2013-04-19 17:45:00,
2013-04-19 13:46:00,42.0,34.0,29.82,WSW,240,7.0,16.0,73,0.00,,---,0.71,VWS V14.01,2013-04-19 17:46:00,
2013-04-19 13:47:00,42.0,34.0,29.82,NW,306,6.0,12.0,73,0.00,,---,0.71,VWS V14.01,2013-04-19 17:47:00,
2013-04-19 13:48:00,41.9,33.9,29.82,WNW,290,8.0,8.0,73,0.00,,---,0.71,VWS V14.01,2013-04-19 17:48:00,
2013-04-19 13:49:00,41.9,34.2,29.83,WSW,238,5.0,10.0,74,0.00,,---,0.71,VWS V14.01,2013-04-19 17:49:00,
2013-04-19 13:50:00,41.9,34.2,29.83,WSW,238,5.0,10.0,74,0.00,,---,0.71,VWS V14.01,2013-04-19 17:50:00,
2013-04-19 13:51:00,41.9,34.2,29.83,WNW,285,4.0,12.0,74,0.00,,---,0.71,VWS V14.01,2013-04-19 17:51:00,
2013-04-19 13:52:00,42.0,34.3,29.83,WSW,253,8.0,8.0,74,0.00,,---,0.71,VWS V14.01,2013-04-19 17:52:00,
2013-04-19 13:53:00,42.0,34.3,29.83,WNW,284,5.0,9.0,74,0.00,,---,0.71,VWS V14.01,2013-04-19 17:53:00,
2013-04-19 13:54:00,42.0,34.3,29.83,NW,304,3.0,7.0,74,0.00,,---,0.71,VWS V14.01,2013-04-19 17:54:00,
2013-04-19 13:55:00,42.0,34.3,29.83,NW,304,3.0,7.0,74,0.00,,---,0.71,VWS V14.01,2013-04-19 17:55:00,
2013-04-19 13:56:00,42.0,34.3,29.83,West,275,6.0,9.0,74,0.00,,---,0.71,VWS V14.01,2013-04-19 17:56:00,
2013-04-19 13:57:00,42.1,34.1,29.83,WNW,295,1.0,11.0,73,0.00,,---,0.71,VWS V14.01,2013-04-19 17:57:00,
2013-04-19 13:58:00,42.1,34.1,29.83,West,272,3.0,9.0,73,0.00,,---,0.71,VWS V14.01,2013-04-19 17:58:00,
2013-04-19 13:59:00,42.1,34.4,29.83,WSW,252,3.0,3.0,74,0.00,,---,0.71,VWS V14.01,2013-04-19 17:59:00,
2013-04-19 14:00:00,42.1,34.4,29.83,WSW,252,3.0,3.0,74,0.00,,---,0.71,VWS V14.01,2013-04-19 18:00:00,
2013-04-19 14:01:00,42.2,34.5,29.83,WNW,289,7.0,9.0,74,0.00,,---,0.71,VWS V14.01,2013-04-19 18:01:00,
2013-04-19 14:02:00,42.2,34.5,29.83,WSW,251,6.0,7.0,74,0.00,,---,0.71,VWS V14.01,2013-04-19 18:02:00,
2013-04-19 14:03:00,42.3,34.6,29.83,NW,311,4.0,6.0,74,0.00,,---,0.71,VWS V14.01,2013-04-19 18:03:00,
2013-04-19 14:04:00,42.4,34.7,29.83,West,280,5.0,10.0,74,0.00,,---,0.71,VWS V14.01,2013-04-19 18:04:00,
2013-04-19 14:05:00,42.4,34.7,29.83,West,280,5.0,10.0,74,0.00,,---,0.71,VWS V14.01,2013-04-19 18:05:00,
2013-04-19 14:06:00,42.4,34.7,29.83,WSW,246,5.0,9.0,74,0.00,,---,0.71,VWS V14.01,2013-04-19 18:06:00,
2013-04-19 14:07:00,42.4,34.4,29.83,WNW,297,4.0,8.0,73,0.00,,---,0.71,VWS V14.01,2013-04-19 18:07:00,
2013-04-19 14:08:00,42.4,34.7,29.83,West,281,3.0,5.0,74,0.00,,---,0.71,VWS V14.01,2013-04-19 18:08:00,
2013-04-19 14:09:00,42.5,34.1,29.83,NW,320,11.0,17.0,72,0.00,,---,0.71,VWS V14.01,2013-04-19 18:09:00,
2013-04-19 14:10:00,42.5,34.1,29.83,NW,320,11.0,17.0,72,0.00,,---,0.71,VWS V14.01,2013-04-19 18:10:00,
2013-04-19 14:11:00,42.5,34.1,29.83,WSW,256,7.0,13.0,72,0.00,,---,0.71,VWS V14.01,2013-04-19 18:11:00,
2013-04-19 14:12:00,42.5,33.8,29.83,WSW,243,8.0,17.0,71,0.00,,---,0.71,VWS V14.01,2013-04-19 18:12:00,
2013-04-19 14:13:00,42.5,33.8,29.83,WNW,283,6.0,8.0,71,0.00,,---,0.71,VWS V14.01,2013-04-19 18:13:00,
2013-04-19 14:14:00,42.6,33.5,29.83,WSW,252,7.0,20.0,70,0.00,,---,0.71,VWS V14.01,2013-04-19 18:14:00,
2013-04-19 14:15:00,42.6,33.5,29.83,WSW,252,7.0,20.0,70,0.00,,---,0.71,VWS V14.01,2013-04-19 18:15:00,
2013-04-19 14:16:00,42.7,33.6,29.83,SW,230,5.0,12.0,70,0.00,,---,0.71,VWS V14.01,2013-04-19 18:16:00,
2013-04-19 14:17:00,42.7,33.6,29.83,West,259,7.0,12.0,70,0.00,,---,0.71,VWS V14.01,2013-04-19 18:17:00,
2013-04-19 14:18:00,42.7,33.6,29.83,WSW,247,3.0,8.0,70,0.00,,---,0.71,VWS V14.01,2013-04-19 18:18:00,
2013-04-19 14:19:00,42.8,34.1,29.83,WSW,248,3.0,11.0,71,0.00,,---,0.71,VWS V14.01,2013-04-19 18:19:00,
2013-04-19 14:20:00,42.8,34.1,29.83,WSW,248,3.0,11.0,71,0.00,,---,0.71,VWS V14.01,2013-04-19 18:20:00,
2013-04-19 14:21:00,42.9,34.2,29.83,WSW,254,4.0,10.0,71,0.00,,---,0.71,VWS V14.01,2013-04-19 18:21:00,
2013-04-19 14:22:00,43.0,34.2,29.83,SW,228,9.0,13.0,71,0.00,,---,0.71,VWS V14.01,2013-04-19 18:22:00,
2013-04-19 14:23:00,43.0,33.9,29.83,WSW,254,14.0,14.0,70,0.00,,---,0.71,VWS V14.01,2013-04-19 18:23:00,
2013-04-19 14:24:00,43.0,33.5,29.83,SW,232,9.0,10.0,69,0.00,,---,0.71,VWS V14.01,2013-04-19 18:24:00,
2013-04-19 14:25:00,43.0,33.5,29.83,SW,232,9.0,10.0,69,0.00,,---,0.71,VWS V14.01,2013-04-19 18:25:00,
2013-04-19 14:26:00,43.0,33.9,29.83,West,269,7.0,14.0,70,0.00,,---,0.71,VWS V14.01,2013-04-19 18:26:00,
2013-04-19 14:27:00,43.1,34.0,29.83,West,269,9.0,11.0,70,0.00,,---,0.71,VWS V14.01,2013-04-19 18:27:00,
2013-04-19 14:28:00,43.1,34.0,29.83,WSW,254,5.0,9.0,70,0.00,,---,0.71,VWS V14.01,2013-04-19 18:28:00,
2013-04-19 14:29:00,43.3,34.2,29.83,West,281,11.0,15.0,70,0.00,,---,0.71,VWS V14.01,2013-04-19 18:29:00,
2013-04-19 14:30:00,43.3,34.2,29.83,West,281,11.0,15.0,70,0.00,,---,0.71,VWS V14.01,2013-04-19 18:30:00,
2013-04-19 14:31:00,43.4,33.9,29.83,WSW,253,13.0,13.0,69,0.00,,---,0.71,VWS V14.01,2013-04-19 18:31:00,
2013-04-19 14:32:00,43.4,33.6,29.83,West,263,9.0,15.0,68,0.00,,---,0.71,VWS V14.01,2013-04-19 18:32:00,
2013-04-19 14:33:00,43.4,33.6,29.83,WNW,292,5.0,15.0,68,0.00,,---,0.71,VWS V14.01,2013-04-19 18:33:00,
2013-04-19 14:34:00,43.3,33.8,29.83,West,261,4.0,15.0,69,0.00,,---,0.71,VWS V14.01,2013-04-19 18:34:00,
2013-04-19 14:35:00,43.3,33.8,29.83,West,261,4.0,15.0,69,0.00,,---,0.71,VWS V14.01,2013-04-19 18:35:00,
2013-04-19 14:36:00,43.4,33.9,29.83,WSW,252,6.0,15.0,69,0.00,,---,0.71,VWS V14.01,2013-04-19 18:36:00,
2013-04-19 14:37:00,43.4,33.9,29.83,WSW,248,9.0,10.0,69,0.00,,---,0.71,VWS V14.01,2013-04-19 18:37:00,
2013-04-19 14:38:00,43.4,33.6,29.83,SW,232,9.0,12.0,68,0.00,,---,0.71,VWS V14.01,2013-04-19 18:38:00,
2013-04-19 14:39:00,43.4,33.9,29.83,WNW,292,10.0,12.0,69,0.00,,---,0.71,VWS V14.01,2013-04-19 18:39:00,
2013-04-19 14:40:00,43.4,33.9,29.83,WNW,292,10.0,12.0,69,0.00,,---,0.71,VWS V14.01,2013-04-19 18:40:00,
2013-04-19 14:41:00,43.3,33.5,29.82,WNW,302,6.0,14.0,68,0.00,,---,0.71,VWS V14.01,2013-04-19 18:41:00,
2013-04-19 14:42:00,43.3,33.8,29.82,WNW,287,9.0,12.0,69,0.00,,---,0.71,VWS V14.01,2013-04-19 18:42:00,
2013-04-19 14:43:00,43.3,33.8,29.83,SW,226,8.0,13.0,69,0.00,,---,0.71,VWS V14.01,2013-04-19 18:43:00,
2013-04-19 14:44:00,43.3,33.8,29.83,WNW,284,5.0,8.0,69,0.00,,---,0.71,VWS V14.01,2013-04-19 18:44:00,
2013-04-19 14:45:00,43.3,33.8,29.83,WNW,284,5.0,8.0,69,0.00,,---,0.71,VWS V14.01,2013-04-19 18:45:00,
2013-04-19 14:46:00,43.4,33.9,29.82,WSW,241,3.0,15.0,69,0.00,,---,0.71,VWS V14.01,2013-04-19 18:46:00,
2013-04-19 14:47:00,43.4,33.9,29.83,WSW,257,5.0,11.0,69,0.00,,---,0.71,VWS V14.01,2013-04-19 18:47:00,
2013-04-19 14:48:00,43.4,33.9,29.82,West,276,3.0,9.0,69,0.00,,---,0.71,VWS V14.01,2013-04-19 18:48:00,
2013-04-19 14:49:00,43.4,33.9,29.82,SW,216,3.0,10.0,69,0.00,,---,0.71,VWS V14.01,2013-04-19 18:49:00,
2013-04-19 14:50:00,43.4,33.9,29.82,SW,216,3.0,10.0,69,0.00,,---,0.71,VWS V14.01,2013-04-19 18:50:00,
2013-04-19 14:51:00,43.4,33.9,29.82,West,275,7.0,12.0,69,0.00,,---,0.71,VWS V14.01,2013-04-19 18:51:00,
2013-04-19 14:52:00,43.4,33.9,29.82,WSW,251,5.0,12.0,69,0.00,,---,0.71,VWS V14.01,2013-04-19 18:52:00,
2013-04-19 14:53:00,43.4,33.9,29.83,WSW,254,1.0,12.0,69,0.00,,---,0.71,VWS V14.01,2013-04-19 18:53:00,
2013-04-19 14:54:00,43.5,34.7,29.83,West,281,8.0,8.0,71,0.00,,---,0.71,VWS V14.01,2013-04-19 18:54:00,
2013-04-19 14:55:00,43.5,34.7,29.83,West,281,8.0,8.0,71,0.00,,---,0.71,VWS V14.01,2013-04-19 18:55:00,
2013-04-19 14:56:00,43.6,34.5,29.83,SE,130,9.0,11.0,70,0.00,,---,0.71,VWS V14.01,2013-04-19 18:56:00,
2013-04-19 14:57:00,43.7,34.9,29.83,WNW,282,8.0,12.0,71,0.00,,---,0.71,VWS V14.01,2013-04-19 18:57:00,
2013-04-19 14:58:00,43.7,34.6,29.83,WSW,246,10.0,11.0,70,0.00,,---,0.71,VWS V14.01,2013-04-19 18:58:00,
2013-04-19 14:59:00,43.8,34.3,29.83,WSW,244,5.0,7.0,69,0.00,,---,0.71,VWS V14.01,2013-04-19 18:59:00,
2013-04-19 15:00:00,43.8,34.3,29.83,WSW,244,5.0,7.0,69,0.00,,---,0.71,VWS V14.01,2013-04-19 19:00:00,
2013-04-19 15:01:00,43.8,34.7,29.83,WNW,283,7.0,11.0,70,0.00,,---,0.71,VWS V14.01,2013-04-19 19:01:00,
2013-04-19 15:02:00,43.9,34.8,29.83,NW,304,5.0,9.0,70,0.00,,---,0.71,VWS V14.01,2013-04-19 19:02:00,
2013-04-19 15:03:00,43.9,34.8,29.84,West,274,15.0,15.0,70,0.00,,---,0.71,VWS V14.01,2013-04-19 19:03:00,
2013-04-19 15:04:00,43.8,33.9,29.84,WSW,247,9.0,15.0,68,0.00,,---,0.71,VWS V14.01,2013-04-19 19:04:00,
2013-04-19 15:05:00,43.8,33.9,29.84,WSW,247,9.0,15.0,68,0.00,,---,0.71,VWS V14.01,2013-04-19 19:05:00,
2013-04-19 15:06:00,43.7,33.8,29.84,West,271,5.0,14.0,68,0.00,,---,0.71,VWS V14.01,2013-04-19 19:06:00,
2013-04-19 15:07:00,43.6,33.8,29.84,West,274,11.0,15.0,68,0.00,,---,0.71,VWS V14.01,2013-04-19 19:07:00,
2013-04-19 15:08:00,43.6,34.1,29.84,WNW,288,7.0,12.0,69,0.00,,---,0.71,VWS V14.01,2013-04-19 19:08:00,
2013-04-19 15:09:00,43.6,34.5,29.84,SSW,212,6.0,9.0,70,0.00,,---,0.71,VWS V14.01,2013-04-19 19:09:00,
2013-04-19 15:10:00,43.6,34.5,29.84,SSW,212,6.0,9.0,70,0.00,,---,0.71,VWS V14.01,2013-04-19 19:10:00,
2013-04-19 15:11:00,43.6,34.5,29.84,SW,229,18.0,18.0,70,0.00,,---,0.71,VWS V14.01,2013-04-19 19:11:00,
2013-04-19 15:12:00,43.6,34.1,29.84,WNW,285,5.0,18.0,69,0.00,,---,0.71,VWS V14.01,2013-04-19 19:12:00,
2013-04-19 15:13:00,43.5,34.0,29.84,WSW,254,10.0,13.0,69,0.00,,---,0.71,VWS V14.01,2013-04-19 19:13:00,
2013-04-19 15:14:00,43.6,34.1,29.83,West,261,9.0,13.0,69,0.00,,---,0.71,VWS V14.01,2013-04-19 19:14:00,
2013-04-19 15:15:00,43.6,34.1,29.83,West,261,9.0,13.0,69,0.00,,---,0.71,VWS V14.01,2013-04-19 19:15:00,
2013-04-19 15:16:00,43.7,34.2,29.83,SW,229,5.0,11.0,69,0.00,,---,0.71,VWS V14.01,2013-04-19 19:16:00,
2013-04-19 15:17:00,43.9,35.1,29.83,WNW,288,7.0,10.0,71,0.00,,---,0.71,VWS V14.01,2013-04-19 19:17:00,
2013-04-19 15:18:00,44.2,35.4,29.83,WSW,246,11.0,13.0,71,0.00,,---,0.71,VWS V14.01,2013-04-19 19:18:00,
2013-04-19 15:19:00,44.4,34.5,29.83,West,265,14.0,14.0,68,0.00,,---,0.71,VWS V14.01,2013-04-19 19:19:00,
2013-04-19 15:20:00,44.4,34.5,29.83,West,265,14.0,14.0,68,0.00,,---,0.71,VWS V14.01,2013-04-19 19:20:00,
2013-04-19 15:21:00,44.5,34.6,29.83,WNW,303,5.0,14.0,68,0.00,,---,0.71,VWS V14.01,2013-04-19 19:21:00,
2013-04-19 15:22:00,44.6,35.1,29.83,West,272,6.0,9.0,69,0.00,,---,0.71,VWS V14.01,2013-04-19 19:22:00,
2013-04-19 15:23:00,44.7,35.2,29.83,WSW,258,5.0,17.0,69,0.00,,---,0.71,VWS V14.01,2013-04-19 19:23:00,
2013-04-19 15:24:00,45.0,34.7,29.83,West,263,6.0,15.0,67,0.00,,---,0.71,VWS V14.01,2013-04-19 19:24:00,
2013-04-19 15:25:00,45.0,34.7,29.83,West,263,6.0,15.0,67,0.00,,---,0.71,VWS V14.01,2013-04-19 19:25:00,
2013-04-19 15:26:00,45.0,35.1,29.83,West,267,15.0,16.0,68,0.00,,---,0.71,VWS V14.01,2013-04-19 19:26:00,
2013-04-19 15:27:00,45.1,34.4,29.83,West,261,5.0,15.0,66,0.00,,---,0.71,VWS V14.01,2013-04-19 19:27:00,
2013-04-19 15:28:00,45.1,34.8,29.83,SSW,192,7.0,16.0,67,0.00,,---,0.71,VWS V14.01,2013-04-19 19:28:00,
2013-04-19 15:29:00,45.1,34.4,29.83,WSW,244,8.0,11.0,66,0.00,,---,0.71,VWS V14.01,2013-04-19 19:29:00,
2013-04-19 15:30:00,45.1,34.4,29.83,WSW,244,8.0,11.0,66,0.00,,---,0.71,VWS V14.01,2013-04-19 19:30:00,
2013-04-19 15:31:00,44.9,34.2,29.83,West,263,7.0,18.0,66,0.00,,---,0.71,VWS V14.01,2013-04-19 19:31:00,
2013-04-19 15:32:00,44.8,34.2,29.83,West,261,10.0,12.0,66,0.00,,---,0.71,VWS V14.01,2013-04-19 19:32:00,
2013-04-19 15:33:00,44.6,33.6,29.83,SW,217,5.0,13.0,65,0.00,,---,0.71,VWS V14.01,2013-04-19 19:33:00,
2013-04-19 15:34:00,44.5,33.5,29.83,WSW,239,13.0,17.0,65,0.00,,---,0.71,VWS V14.01,2013-04-19 19:34:00,
2013-04-19 15:35:00,44.5,33.5,29.83,WSW,239,13.0,17.0,65,0.00,,---,0.71,VWS V14.01,2013-04-19 19:35:00,
2013-04-19 15:36:00,44.3,33.3,29.83,West,272,5.0,13.0,65,0.00,,---,0.71,VWS V14.01,2013-04-19 19:36:00,
2013-04-19 15:37:00,44.3,33.7,29.83,West,273,3.0,9.0,66,0.00,,---,0.71,VWS V14.01,2013-04-19 19:37:00,
2013-04-19 15:38:00,44.3,34.0,29.83,NW,311,4.0,7.0,67,0.00,,---,0.71,VWS V14.01,2013-04-19 19:38:00,
2013-04-19 15:39:00,44.4,34.1,29.83,SW,234,4.0,10.0,67,0.00,,---,0.71,VWS V14.01,2013-04-19 19:39:00,
2013-04-19 15:40:00,44.4,34.1,29.83,SW,234,4.0,10.0,67,0.00,,---,0.71,VWS V14.01,2013-04-19 19:40:00,
2013-04-19 15:41:00,44.5,34.2,29.83,WSW,244,5.0,11.0,67,0.00,,---,0.71,VWS V14.01,2013-04-19 19:41:00,
2013-04-19 15:42:00,44.5,34.6,29.83,West,271,6.0,7.0,68,0.00,,---,0.71,VWS V14.01,2013-04-19 19:42:00,
2013-04-19 15:43:00,44.5,34.2,29.83,WNW,294,6.0,18.0,67,0.00,,---,0.71,VWS V14.01,2013-04-19 19:43:00,
2013-04-19 15:44:00,44.6,34.3,29.83,NW,304,10.0,18.0,67,0.00,,---,0.71,VWS V14.01,2013-04-19 19:44:00,
2013-04-19 15:45:00,44.5,33.9,29.83,WSW,239,13.0,13.0,66,0.00,,---,0.71,VWS V14.01,2013-04-19 19:45:00,
2013-04-19 15:46:00,44.5,33.9,29.83,WSW,239,13.0,13.0,66,0.00,,---,0.71,VWS V14.01,2013-04-19 19:46:00,
2013-04-19 15:47:00,44.4,33.4,29.83,West,270,10.0,13.0,65,0.00,,---,0.71,VWS V14.01,2013-04-19 19:47:00,
2013-04-19 15:48:00,44.4,34.1,29.83,WNW,300,5.0,10.0,67,0.00,,---,0.71,VWS V14.01,2013-04-19 19:48:00,
2013-04-19 15:49:00,44.4,34.1,29.83,SW,234,4.0,13.0,67,0.00,,---,0.71,VWS V14.01,2013-04-19 19:49:00,
2013-04-19 15:50:00,44.6,34.0,29.83,West,274,11.0,13.0,66,0.00,,---,0.71,VWS V14.01,2013-04-19 19:50:00,
2013-04-19 15:51:00,44.6,34.0,29.83,West,274,11.0,13.0,66,0.00,,---,0.71,VWS V14.01,2013-04-19 19:51:00,
2013-04-19 15:52:00,44.6,34.0,29.83,West,267,6.0,12.0,66,0.00,,---,0.71,VWS V14.01,2013-04-19 19:52:00,
2013-04-19 15:53:00,44.7,34.0,29.83,WSW,254,11.0,11.0,66,0.00,,---,0.71,VWS V14.01,2013-04-19 19:53:00,
2013-04-19 15:54:00,44.8,34.9,29.83,SW,226,8.0,11.0,68,0.00,,---,0.71,VWS V14.01,2013-04-19 19:54:00,
2013-04-19 15:55:00,45.1,34.4,29.84,West,263,14.0,14.0,66,0.00,,---,0.71,VWS V14.01,2013-04-19 19:55:00,
2013-04-19 15:56:00,45.1,34.4,29.84,West,263,14.0,14.0,66,0.00,,---,0.71,VWS V14.01,2013-04-19 19:56:00,
2013-04-19 15:57:00,45.1,33.7,29.84,West,260,6.0,14.0,64,0.00,,---,0.71,VWS V14.01,2013-04-19 19:57:00,
2013-04-19 15:58:00,45.1,34.0,29.83,WSW,242,5.0,7.0,65,0.00,,---,0.71,VWS V14.01,2013-04-19 19:58:00,
2013-04-19 15:59:00,45.2,34.2,29.84,SW,227,5.0,9.0,65,0.00,,---,0.71,VWS V14.01,2013-04-19 19:59:00,
2013-04-19 16:00:00,45.1,34.0,29.83,WSW,242,5.0,9.0,65,0.00,,---,0.71,VWS V14.01,2013-04-19 20:00:00,
2013-04-19 16:01:00,45.1,34.0,29.83,WSW,242,5.0,9.0,65,0.00,,---,0.71,VWS V14.01,2013-04-19 20:01:00,
2013-04-19 16:02:00,45.1,34.4,29.83,West,268,5.0,10.0,66,0.00,,---,0.71,VWS V14.01,2013-04-19 20:02:00,
2013-04-19 16:03:00,45.0,34.3,29.83,WSW,248,10.0,11.0,66,0.00,,---,0.71,VWS V14.01,2013-04-19 20:03:00,
2013-04-19 16:04:00,45.0,34.0,29.83,West,276,5.0,12.0,65,0.00,,---,0.71,VWS V14.01,2013-04-19 20:04:00,
2013-04-19 16:05:00,44.8,33.8,29.84,West,266,3.0,11.0,65,0.00,,---,0.71,VWS V14.01,2013-04-19 20:05:00,
2013-04-19 16:06:00,44.8,33.8,29.84,West,266,3.0,11.0,65,0.00,,---,0.71,VWS V14.01,2013-04-19 20:06:00,
2013-04-19 16:07:00,44.8,33.8,29.84,West,262,6.0,8.0,65,0.00,,---,0.71,VWS V14.01,2013-04-19 20:07:00,
2013-04-19 16:08:00,44.7,33.7,29.84,WSW,244,6.0,10.0,65,0.00,,---,0.71,VWS V14.01,2013-04-19 20:08:00,
2013-04-19 16:09:00,44.6,33.6,29.84,NW,309,6.0,14.0,65,0.00,,---,0.71,VWS V14.01,2013-04-19 20:09:00,
2013-04-19 16:10:00,44.5,33.9,29.83,WNW,296,11.0,19.0,66,0.00,,---,0.71,VWS V14.01,2013-04-19 20:10:00,
2013-04-19 16:11:00,44.5,33.9,29.83,WNW,296,11.0,19.0,66,0.00,,---,0.71,VWS V14.01,2013-04-19 20:11:00,
2013-04-19 16:12:00,44.3,32.9,29.84,West,262,4.0,11.0,64,0.00,,---,0.71,VWS V14.01,2013-04-19 20:12:00,
2013-04-19 16:13:00,44.2,33.2,29.84,WNW,288,10.0,13.0,65,0.00,,---,0.71,VWS V14.01,2013-04-19 20:13:00,
2013-04-19 16:14:00,44.1,33.5,29.84,WSW,258,12.0,15.0,66,0.00,,---,0.71,VWS V14.01,2013-04-19 20:14:00,
2013-04-19 16:15:00,43.9,33.3,29.84,West,261,7.0,10.0,66,0.00,,---,0.71,VWS V14.01,2013-04-19 20:15:00,
2013-04-19 16:16:00,43.9,33.3,29.84,West,261,7.0,10.0,66,0.00,,---,0.71,VWS V14.01,2013-04-19 20:16:00,
2013-04-19 16:17:00,43.8,33.2,29.84,SW,215,6.0,12.0,66,0.00,,---,0.71,VWS V14.01,2013-04-19 20:17:00,
2013-04-19 16:18:00,43.8,33.2,29.84,WSW,240,8.0,14.0,66,0.00,,---,0.71,VWS V14.01,2013-04-19 20:18:00,
2013-04-19 16:19:00,43.8,33.2,29.84,WNW,300,2.0,10.0,66,0.00,,---,0.71,VWS V14.01,2013-04-19 20:19:00,
2013-04-19 16:20:00,43.7,33.5,29.84,West,277,7.0,12.0,67,0.00,,---,0.71,VWS V14.01,2013-04-19 20:20:00,
2013-04-19 16:21:00,43.7,33.5,29.84,West,277,7.0,12.0,67,0.00,,---,0.71,VWS V14.01,2013-04-19 20:21:00,
2013-04-19 16:22:00,43.7,33.5,29.84,NW,304,7.0,11.0,67,0.00,,---,0.71,VWS V14.01,2013-04-19 20:22:00,
2013-04-19 16:23:00,43.7,33.5,29.84,WNW,289,5.0,13.0,67,0.00,,---,0.71,VWS V14.01,2013-04-19 20:23:00,
2013-04-19 16:24:00,43.7,33.5,29.84,NNW,327,3.0,7.0,67,0.00,,---,0.71,VWS V14.01,2013-04-19 20:24:00,
2013-04-19 16:25:00,43.6,33.4,29.84,West,271,5.0,9.0,67,0.00,,---,0.71,VWS V14.01,2013-04-19 20:25:00,
2013-04-19 16:26:00,43.6,33.4,29.84,West,271,5.0,9.0,67,0.00,,---,0.71,VWS V14.01,2013-04-19 20:26:00,
2013-04-19 16:27:00,43.6,33.4,29.84,NNW,347,2.0,5.0,67,0.00,,---,0.71,VWS V14.01,2013-04-19 20:27:00,
2013-04-19 16:28:00,43.6,33.8,29.84,West,275,3.0,9.0,68,0.00,,---,0.71,VWS V14.01,2013-04-19 20:28:00,
2013-04-19 16:29:00,43.6,33.8,29.84,WNW,288,4.0,6.0,68,0.00,,---,0.71,VWS V14.01,2013-04-19 20:29:00,
2013-04-19 16:30:00,43.6,34.1,29.84,NW,313,6.0,9.0,69,0.00,,---,0.71,VWS V14.01,2013-04-19 20:30:00,
2013-04-19 16:31:00,43.6,34.1,29.84,NW,313,6.0,9.0,69,0.00,,---,0.71,VWS V14.01,2013-04-19 20:31:00,
2013-04-19 16:32:00,43.6,33.8,29.84,WSW,255,2.0,8.0,68,0.00,,---,0.71,VWS V14.01,2013-04-19 20:32:00,
2013-04-19 16:33:00,43.6,34.1,29.84,WSW,243,7.0,11.0,69,0.00,,---,0.71,VWS V14.01,2013-04-19 20:33:00,
2013-04-19 16:34:00,43.6,33.8,29.84,SW,232,6.0,7.0,68,0.00,,---,0.71,VWS V14.01,2013-04-19 20:34:00,
2013-04-19 16:35:00,43.6,33.8,29.84,WSW,255,3.0,8.0,68,0.00,,---,0.71,VWS V14.01,2013-04-19 20:35:00,
2013-04-19 16:36:00,43.5,34.0,29.84,West,274,5.0,6.0,69,0.00,,---,0.71,VWS V14.01,2013-04-19 20:36:00,
2013-04-19 16:37:00,43.5,34.0,29.84,West,274,5.0,6.0,69,0.00,,---,0.71,VWS V14.01,2013-04-19 20:37:00,
2013-04-19 16:38:00,43.5,33.7,29.84,SW,228,4.0,7.0,68,0.00,,---,0.71,VWS V14.01,2013-04-19 20:38:00,
2013-04-19 16:39:00,43.5,33.7,29.84,SW,234,4.0,8.0,68,0.00,,---,0.71,VWS V14.01,2013-04-19 20:39:00,
2013-04-19 16:40:00,43.6,33.8,29.85,NNW,337,5.0,10.0,68,0.00,,---,0.71,VWS V14.01,2013-04-19 20:40:00,
2013-04-19 16:41:00,43.7,34.2,29.84,NW,319,8.0,8.0,69,0.00,,---,0.71,VWS V14.01,2013-04-19 20:41:00,
2013-04-19 16:42:00,43.7,34.2,29.84,NW,319,8.0,8.0,69,0.00,,---,0.71,VWS V14.01,2013-04-19 20:42:00,
2013-04-19 16:43:00,43.8,33.9,29.84,West,261,0.0,8.0,68,0.00,,---,0.71,VWS V14.01,2013-04-19 20:43:00,
2013-04-19 16:44:00,44.0,34.5,29.84,West,281,3.0,6.0,69,0.00,,---,0.71,VWS V14.01,2013-04-19 20:44:00,
2013-04-19 16:45:00,44.2,35.0,29.84,WSW,238,4.0,8.0,70,0.00,,---,0.71,VWS V14.01,2013-04-19 20:45:00,
2013-04-19 16:46:00,44.5,35.0,29.84,WSW,240,2.0,5.0,69,0.00,,---,0.71,VWS V14.01,2013-04-19 20:46:00,
2013-04-19 16:47:00,44.5,35.0,29.84,WSW,240,2.0,5.0,69,0.00,,---,0.71,VWS V14.01,2013-04-19 20:47:00,
2013-04-19 16:48:00,44.6,34.7,29.84,WSW,244,4.0,7.0,68,0.00,,---,0.71,VWS V14.01,2013-04-19 20:48:00,
2013-04-19 16:49:00,44.7,35.2,29.85,West,267,7.0,7.0,69,0.00,,---,0.71,VWS V14.01,2013-04-19 20:49:00,
2013-04-19 16:50:00,44.8,34.5,29.85,SW,236,7.0,11.0,67,0.00,,---,0.71,VWS V14.01,2013-04-19 20:50:00,
2013-04-19 16:51:00,44.6,34.0,29.84,WSW,248,4.0,12.0,66,0.00,,---,0.71,VWS V14.01,2013-04-19 20:51:00,
2013-04-19 16:52:00,44.6,34.0,29.84,WSW,248,4.0,12.0,66,0.00,,---,0.71,VWS V14.01,2013-04-19 20:52:00,
2013-04-19 16:53:00,44.5,33.5,29.85,West,277,6.0,12.0,65,0.00,,---,0.71,VWS V14.01,2013-04-19 20:53:00,
2013-04-19 16:54:00,44.4,33.4,29.85,West,276,6.0,13.0,65,0.00,,---,0.71,VWS V14.01,2013-04-19 20:54:00,
2013-04-19 16:55:00,44.3,33.3,29.85,West,280,4.0,9.0,65,0.00,,---,0.71,VWS V14.01,2013-04-19 20:55:00,
2013-04-19 16:56:00,44.2,33.6,29.85,West,264,9.0,13.0,66,0.00,,---,0.71,VWS V14.01,2013-04-19 20:56:00,
2013-04-19 16:57:00,44.2,33.6,29.85,West,264,9.0,13.0,66,0.00,,---,0.71,VWS V14.01,2013-04-19 20:57:00,
2013-04-19 16:58:00,44.2,33.2,29.85,WSW,257,2.0,10.0,65,0.00,,---,0.71,VWS V14.01,2013-04-19 20:58:00,
2013-04-19 16:59:00,44.1,33.1,29.85,West,265,5.0,10.0,65,0.00,,---,0.71,VWS V14.01,2013-04-19 20:59:00,
2013-04-19 17:00:00,44.1,33.1,29.85,West,267,4.0,6.0,65,0.00,,---,0.71,VWS V14.01,2013-04-19 21:00:00,
2013-04-19 17:01:00,44.1,33.5,29.85,WNW,287,4.0,4.0,66,0.00,,---,0.71,VWS V14.01,2013-04-19 21:01:00,
2013-04-19 17:02:00,44.1,33.5,29.85,WNW,287,4.0,4.0,66,0.00,,---,0.71,VWS V14.01,2013-04-19 21:02:00,
2013-04-19 17:03:00,44.1,33.9,29.86,WNW,287,5.0,10.0,67,0.00,,---,0.71,VWS V14.01,2013-04-19 21:03:00,
2013-04-19 17:04:00,44.1,33.5,29.85,WNW,290,5.0,8.0,66,0.00,,---,0.71,VWS V14.01,2013-04-19 21:04:00,
2013-04-19 17:05:00,44.1,33.5,29.86,WSW,253,4.0,6.0,66,0.00,,---,0.71,VWS V14.01,2013-04-19 21:05:00,
2013-04-19 17:06:00,44.1,33.5,29.86,WNW,302,4.0,4.0,66,0.00,,---,0.71,VWS V14.01,2013-04-19 21:06:00,
2013-04-19 17:07:00,44.1,33.5,29.86,WNW,302,4.0,4.0,66,0.00,,---,0.71,VWS V14.01,2013-04-19 21:07:00,
2013-04-19 17:08:00,44.1,33.5,29.86,WSW,249,1.0,6.0,66,0.00,,---,0.71,VWS V14.01,2013-04-19 21:08:00,
2013-04-19 17:09:00,44.1,33.5,29.86,SW,235,2.0,7.0,66,0.00,,---,0.71,VWS V14.01,2013-04-19 21:09:00,
2013-04-19 17:10:00,44.1,33.5,29.86,WNW,284,6.0,9.0,66,0.00,,---,0.71,VWS V14.01,2013-04-19 21:10:00,
2013-04-19 17:11:00,44.1,33.1,29.86,WSW,258,4.0,6.0,65,0.00,,---,0.71,VWS V14.01,2013-04-19 21:11:00,
2013-04-19 17:12:00,44.1,33.1,29.86,WSW,258,4.0,6.0,65,0.00,,---,0.71,VWS V14.01,2013-04-19 21:12:00,
2013-04-19 17:13:00,44.1,33.1,29.86,WNW,286,5.0,9.0,65,0.00,,---,0.71,VWS V14.01,2013-04-19 21:13:00,
2013-04-19 17:14:00,44.1,33.1,29.86,WNW,296,6.0,8.0,65,0.00,,---,0.71,VWS V14.01,2013-04-19 21:14:00,
2013-04-19 17:15:00,44.1,32.7,29.86,WNW,292,7.0,17.0,64,0.00,,---,0.71,VWS V14.01,2013-04-19 21:15:00,
2013-04-19 17:16:00,44.0,32.2,29.86,WSW,246,6.0,9.0,63,0.00,,---,0.71,VWS V14.01,2013-04-19 21:16:00,
2013-04-19 17:17:00,44.0,32.2,29.86,WSW,246,6.0,9.0,63,0.00,,---,0.71,VWS V14.01,2013-04-19 21:17:00,
2013-04-19 17:18:00,44.0,31.8,29.86,SW,227,8.0,8.0,62,0.00,,---,0.71,VWS V14.01,2013-04-19 21:18:00,
2013-04-19 17:19:00,43.9,31.7,29.86,WSW,243,10.0,12.0,62,0.00,,---,0.71,VWS V14.01,2013-04-19 21:19:00,
2013-04-19 17:20:00,43.9,31.7,29.87,West,276,4.0,10.0,62,0.00,,---,0.71,VWS V14.01,2013-04-19 21:20:00,
2013-04-19 17:21:00,43.9,31.3,29.87,WSW,254,15.0,15.0,61,0.00,,---,0.71,VWS V14.01,2013-04-19 21:21:00,
2013-04-19 17:22:00,43.9,31.3,29.87,WSW,254,15.0,15.0,61,0.00,,---,0.71,VWS V14.01,2013-04-19 21:22:00,
2013-04-19 17:23:00,43.8,31.2,29.87,WNW,296,9.0,15.0,61,0.00,,---,0.71,VWS V14.01,2013-04-19 21:23:00,
2013-04-19 17:24:00,43.8,31.2,29.87,SW,231,5.0,14.0,61,0.00,,---,0.71,VWS V14.01,2013-04-19 21:24:00,
2013-04-19 17:25:00,43.8,31.2,29.87,WSW,256,6.0,15.0,61,0.00,,---,0.71,VWS V14.01,2013-04-19 21:25:00,
2013-04-19 17:26:00,43.8,31.6,29.87,West,275,3.0,8.0,62,0.00,,---,0.71,VWS V14.01,2013-04-19 21:26:00,
2013-04-19 17:27:00,43.8,31.6,29.87,West,275,3.0,8.0,62,0.00,,---,0.71,VWS V14.01,2013-04-19 21:27:00,
2013-04-19 17:28:00,43.7,31.5,29.87,West,281,12.0,12.0,62,0.00,,---,0.71,VWS V14.01,2013-04-19 21:28:00,
2013-04-19 17:29:00,43.7,31.1,29.87,West,262,10.0,12.0,61,0.00,,---,0.71,VWS V14.01,2013-04-19 21:29:00,
2013-04-19 17:30:00,43.7,31.1,29.87,WSW,252,6.0,10.0,61,0.00,,---,0.71,VWS V14.01,2013-04-19 21:30:00,
2013-04-19 17:31:00,43.7,31.5,29.88,West,263,4.0,10.0,62,0.00,,---,0.71,VWS V14.01,2013-04-19 21:31:00,
2013-04-19 17:32:00,43.7,31.5,29.88,West,263,4.0,10.0,62,0.00,,---,0.71,VWS V14.01,2013-04-19 21:32:00,
2013-04-19 17:33:00,43.7,31.1,29.87,SW,225,6.0,6.0,61,0.00,,---,0.71,VWS V14.01,2013-04-19 21:33:00,
2013-04-19 17:34:00,43.7,31.5,29.87,WSW,254,7.0,7.0,62,0.00,,---,0.71,VWS V14.01,2013-04-19 21:34:00,
2013-04-19 17:35:00,43.7,31.5,29.88,WSW,240,3.0,7.0,62,0.00,,---,0.71,VWS V14.01,2013-04-19 21:35:00,
2013-04-19 17:36:00,43.7,31.5,29.88,West,278,0.0,7.0,62,0.00,,---,0.71,VWS V14.01,2013-04-19 21:36:00,
2013-04-19 17:37:00,43.7,31.5,29.88,West,278,0.0,7.0,62,0.00,,---,0.71,VWS V14.01,2013-04-19 21:37:00,
2013-04-19 17:38:00,43.7,31.5,29.88,WNW,288,3.0,5.0,62,0.00,,---,0.71,VWS V14.01,2013-04-19 21:38:00,
2013-04-19 17:39:00,43.7,32.3,29.88,West,264,3.0,3.0,64,0.00,,---,0.71,VWS V14.01,2013-04-19 21:39:00,
2013-04-19 17:40:00,43.7,31.9,29.88,NNW,344,3.0,6.0,63,0.00,,---,0.71,VWS V14.01,2013-04-19 21:40:00,
2013-04-19 17:41:00,43.7,32.0,29.88,WNW,284,4.0,4.0,63,0.00,,---,0.71,VWS V14.01,2013-04-19 21:41:00,
2013-04-19 17:42:00,43.7,31.9,29.88,WNW,284,4.0,4.0,63,0.00,,---,0.71,VWS V14.01,2013-04-19 21:42:00,
2013-04-19 17:43:00,43.7,31.9,29.88,WNW,284,0.0,4.0,63,0.00,,---,0.71,VWS V14.01,2013-04-19 21:43:00,
2013-04-19 17:44:00,43.8,32.4,29.88,West,259,5.0,5.0,64,0.00,,---,0.71,VWS V14.01,2013-04-19 21:44:00,
2013-04-19 17:45:00,43.8,32.4,29.88,WSW,246,2.0,8.0,64,0.00,,---,0.71,VWS V14.01,2013-04-19 21:45:00,
2013-04-19 17:46:00,43.8,32.4,29.88,West,261,2.0,9.0,64,0.00,,---,0.71,VWS V14.01,2013-04-19 21:46:00,
2013-04-19 17:47:00,43.8,32.4,29.88,West,261,2.0,9.0,64,0.00,,---,0.71,VWS V14.01,2013-04-19 21:47:00,
2013-04-19 17:48:00,43.8,32.4,29.88,West,274,0.0,4.0,64,0.00,,---,0.71,VWS V14.01,2013-04-19 21:48:00,
2013-04-19 17:49:00,43.8,32.4,29.88,West,277,7.0,9.0,64,0.00,,---,0.71,VWS V14.01,2013-04-19 21:49:00,
2013-04-19 17:50:00,43.8,32.0,29.88,WSW,246,4.0,9.0,63,0.00,,---,0.71,VWS V14.01,2013-04-19 21:50:00,
2013-04-19 17:51:00,43.7,32.0,29.88,West,281,8.0,11.0,63,0.00,,---,0.71,VWS V14.01,2013-04-19 21:51:00,
2013-04-19 17:52:00,43.7,31.9,29.88,West,281,8.0,11.0,63,0.00,,---,0.71,VWS V14.01,2013-04-19 21:52:00,
2013-04-19 17:53:00,43.6,31.5,29.88,West,277,4.0,8.0,62,0.00,,---,0.71,VWS V14.01,2013-04-19 21:53:00,
2013-04-19 17:54:00,43.6,31.9,29.88,SW,231,8.0,8.0,63,0.00,,---,0.71,VWS V14.01,2013-04-19 21:54:00,
2013-04-19 17:55:00,43.6,31.5,29.88,West,281,3.0,9.0,62,0.00,,---,0.71,VWS V14.01,2013-04-19 21:55:00,
2013-04-19 17:56:00,43.5,31.8,29.88,West,273,2.0,5.0,63,0.00,,---,0.71,VWS V14.01,2013-04-19 21:56:00,
2013-04-19 17:57:00,43.5,31.8,29.88,West,273,2.0,5.0,63,0.00,,---,0.71,VWS V14.01,2013-04-19 21:57:00,
2013-04-19 17:58:00,43.6,32.2,29.88,WSW,257,13.0,13.0,64,0.00,,---,0.71,VWS V14.01,2013-04-19 21:58:00,
2013-04-19 17:59:00,43.5,31.8,29.88,WNW,286,0.0,14.0,63,0.00,,---,0.71,VWS V14.01,2013-04-19 21:59:00,
2013-04-19 18:00:00,43.5,31.8,29.89,SW,227,9.0,11.0,63,0.00,,---,0.71,VWS V14.01,2013-04-19 22:00:00,
2013-04-19 18:01:00,43.5,31.8,29.89,SW,229,5.0,6.0,63,0.00,,---,0.71,VWS V14.01,2013-04-19 22:01:00,
2013-04-19 18:02:00,43.5,31.8,29.89,SW,229,5.0,6.0,63,0.00,,---,0.71,VWS V14.01,2013-04-19 22:02:00,
2013-04-19 18:03:00,43.5,31.8,29.89,WNW,292,4.0,5.0,63,0.00,,---,0.71,VWS V14.01,2013-04-19 22:03:00,
2013-04-19 18:04:00,43.4,31.7,29.89,West,264,4.0,11.0,63,0.00,,---,0.71,VWS V14.01,2013-04-19 22:04:00,
2013-04-19 18:05:00,43.4,31.7,29.89,WNW,286,4.0,6.0,63,0.00,,---,0.71,VWS V14.01,2013-04-19 22:05:00,
2013-04-19 18:06:00,43.4,32.0,29.89,NNW,329,1.0,5.0,64,0.00,,---,0.71,VWS V14.01,2013-04-19 22:06:00,
2013-04-19 18:07:00,43.4,32.0,29.89,NNW,329,1.0,5.0,64,0.00,,---,0.71,VWS V14.01,2013-04-19 22:07:00,
2013-04-19 18:08:00,43.4,32.0,29.89,West,275,3.0,4.0,64,0.00,,---,0.71,VWS V14.01,2013-04-19 22:08:00,
2013-04-19 18:09:00,43.4,32.0,29.89,WSW,247,7.0,9.0,64,0.00,,---,0.71,VWS V14.01,2013-04-19 22:09:00,
2013-04-19 18:10:00,43.4,32.0,29.89,WSW,240,0.0,8.0,64,0.00,,---,0.71,VWS V14.01,2013-04-19 22:10:00,
2013-04-19 18:11:00,43.4,32.0,29.89,West,275,7.0,10.0,64,0.00,,---,0.71,VWS V14.01,2013-04-19 22:11:00,
2013-04-19 18:12:00,43.4,32.0,29.89,West,275,7.0,10.0,64,0.00,,---,0.71,VWS V14.01,2013-04-19 22:12:00,
2013-04-19 18:13:00,43.4,32.0,29.89,WSW,257,3.0,7.0,64,0.00,,---,0.71,VWS V14.01,2013-04-19 22:13:00,
2013-04-19 18:14:00,43.3,32.0,29.89,West,267,7.0,7.0,64,0.00,,---,0.71,VWS V14.01,2013-04-19 22:14:00,
2013-04-19 18:15:00,43.3,32.0,29.90,WNW,291,3.0,10.0,64,0.00,,---,0.71,VWS V14.01,2013-04-19 22:15:00,
2013-04-19 18:16:00,43.2,31.9,29.90,WSW,244,3.0,7.0,64,0.00,,---,0.71,VWS V14.01,2013-04-19 22:16:00,
2013-04-19 18:17:00,43.2,31.9,29.90,WSW,244,3.0,7.0,64,0.00,,---,0.71,VWS V14.01,2013-04-19 22:17:00,
2013-04-19 18:18:00,43.2,31.9,29.90,WSW,242,8.0,8.0,64,0.00,,---,0.71,VWS V14.01,2013-04-19 22:18:00,
2013-04-19 18:19:00,43.2,32.2,29.90,WSW,244,4.0,9.0,65,0.00,,---,0.71,VWS V14.01,2013-04-19 22:19:00,
2013-04-19 18:20:00,43.2,32.2,29.90,West,276,3.0,6.0,65,0.00,,---,0.71,VWS V14.01,2013-04-19 22:20:00,
2013-04-19 18:21:00,43.1,32.2,29.90,WSW,248,4.0,6.0,65,0.00,,---,0.71,VWS V14.01,2013-04-19 22:21:00,
2013-04-19 18:22:00,43.1,32.2,29.90,WSW,248,4.0,6.0,65,0.00,,---,0.71,VWS V14.01,2013-04-19 22:22:00,
2013-04-19 18:23:00,43.1,31.8,29.90,WSW,245,3.0,8.0,64,0.00,,---,0.71,VWS V14.01,2013-04-19 22:23:00,
2013-04-19 18:24:00,43.1,32.2,29.90,WNW,288,2.0,5.0,65,0.00,,---,0.71,VWS V14.01,2013-04-19 22:24:00,
2013-04-19 18:25:00,43.1,32.5,29.91,West,279,2.0,4.0,66,0.00,,---,0.71,VWS V14.01,2013-04-19 22:25:00,
2013-04-19 18:26:00,43.1,32.5,29.90,WSW,253,4.0,5.0,66,0.00,,---,0.71,VWS V14.01,2013-04-19 22:26:00,
2013-04-19 18:27:00,43.1,32.5,29.90,WSW,253,4.0,5.0,66,0.00,,---,0.71,VWS V14.01,2013-04-19 22:27:00,